Want more features on Pastebin? Sign Up, it's FREE!
Guest

King Arthur XBMC Log

By: a guest on Apr 12th, 2010  |  syntax: None  |  size: 101.66 KB  |  views: 94  |  expires: Never
download  |  raw  |  embed  |  report abuse  |  print
Text below is selected. Please press Ctrl+C to copy to your clipboard. (⌘+C on Mac)
  1. 19:39:46 T:2693854432 M:977190912  NOTICE: -----------------------------------------------------------------------
  2. 19:39:46 T:2693854432 M:977190912  NOTICE: Starting XBMC, Platform: Mac OS X (10.3.0 i386). Built on Mar  1 2010 (SVN:28256)
  3. 19:39:46 T:2693854432 M:977186816  NOTICE: special://xbmc/ is mapped to: /Applications/XBMC.app/Contents/Resources/XBMC
  4. 19:39:46 T:2693854432 M:977186816  NOTICE: special://masterprofile/ is mapped to: /Users/username/Library/Application Support/XBMC/userdata
  5. 19:39:46 T:2693854432 M:977186816  NOTICE: special://home/ is mapped to: /Users/username/Library/Application Support/XBMC
  6. 19:39:46 T:2693854432 M:977186816  NOTICE: special://temp/ is mapped to: /Users/username/.xbmc/temp
  7. 19:39:46 T:2693854432 M:977186816  NOTICE: The executable running is: /Applications/XBMC.app/Contents/MacOS/XBMC
  8. 19:39:46 T:2693854432 M:977186816  NOTICE: Log File is located: /Users/username/Library/Logs/xbmc.log
  9. 19:39:46 T:2693854432 M:977186816  NOTICE: -----------------------------------------------------------------------
  10. 19:39:46 T:2693854432 M:977186816  NOTICE: Setup SDL
  11. 19:39:46 T:2693854432 M:976961536  NOTICE: load settings...
  12. 19:39:46 T:2693854432 M:976932864   DEBUG: SECTION:LoadDLL(libcrystalhd.dylib)
  13. 19:39:46 T:2693854432 M:976920576   DEBUG: Loading: libcrystalhd.dylib
  14. 19:39:48 T:2693854432 M:937119744    INFO: CrystalHD: device opened
  15. 19:39:48 T:2693854432 M:937099264  NOTICE: special://profile/ is mapped to: special://masterprofile/
  16. 19:39:48 T:2693854432 M:937099264  NOTICE: loading special://masterprofile/guisettings.xml
  17. 19:39:48 T:2693854432 M:936574976  NOTICE: Getting hardware information now...
  18. 19:39:48 T:2693854432 M:936574976    INFO: Using analog output
  19. 19:39:48 T:2693854432 M:936574976    INFO: AC3 pass through is enabled
  20. 19:39:48 T:2693854432 M:936574976    INFO: DTS pass through is enabled
  21. 19:39:48 T:2693854432 M:936574976    INFO: AAC pass through is disabled
  22. 19:39:48 T:2693854432 M:936574976    INFO: MP1 pass through is disabled
  23. 19:39:48 T:2693854432 M:936574976    INFO: MP2 pass through is disabled
  24. 19:39:48 T:2693854432 M:936574976    INFO: MP3 pass through is disabled
  25. 19:39:48 T:2693854432 M:936574976  NOTICE: Checking resolution 12
  26. 19:39:48 T:2693854432 M:936529920  NOTICE: Loading player core factory settings from special://xbmc/system/playercorefactory.xml.
  27. 19:39:48 T:2693854432 M:936513536   DEBUG: CPlayerCoreConfig::<ctor>: created player DVDPlayer for core 1
  28. 19:39:48 T:2693854432 M:936513536   DEBUG: CPlayerCoreConfig::<ctor>: created player oldmplayercore for core 1
  29. 19:39:48 T:2693854432 M:936513536   DEBUG: CPlayerCoreConfig::<ctor>: created player PAPlayer for core 3
  30. 19:39:48 T:2693854432 M:936513536   DEBUG: CPlayerSelectionRule::Initialize: creating rule: system rules
  31. 19:39:48 T:2693854432 M:936513536   DEBUG: CPlayerSelectionRule::Initialize: creating rule: rtv
  32. 19:39:48 T:2693854432 M:936513536   DEBUG: CPlayerSelectionRule::Initialize: creating rule: hdhomerun/myth/rtmp/mms/udp
  33. 19:39:48 T:2693854432 M:936513536   DEBUG: CPlayerSelectionRule::Initialize: creating rule: lastfm/shout
  34. 19:39:48 T:2693854432 M:936513536   DEBUG: CPlayerSelectionRule::Initialize: creating rule: rtsp
  35. 19:39:48 T:2693854432 M:936513536   DEBUG: CPlayerSelectionRule::Initialize: creating rule: streams
  36. 19:39:48 T:2693854432 M:936513536   DEBUG: CPlayerSelectionRule::Initialize: creating rule: flv/aacp/sdp
  37. 19:39:48 T:2693854432 M:936513536   DEBUG: CPlayerSelectionRule::Initialize: creating rule: mp2
  38. 19:39:48 T:2693854432 M:936513536   DEBUG: CPlayerSelectionRule::Initialize: creating rule: dvd
  39. 19:39:48 T:2693854432 M:936513536   DEBUG: CPlayerSelectionRule::Initialize: creating rule: dvdfile
  40. 19:39:48 T:2693854432 M:936513536   DEBUG: CPlayerSelectionRule::Initialize: creating rule: dvdimage
  41. 19:39:48 T:2693854432 M:936513536   DEBUG: CPlayerSelectionRule::Initialize: creating rule: sdp/asf
  42. 19:39:48 T:2693854432 M:936513536   DEBUG: CPlayerSelectionRule::Initialize: creating rule: nsv
  43. 19:39:48 T:2693854432 M:936513536  NOTICE: Loaded playercorefactory configuration
  44. 19:39:48 T:2693854432 M:936513536  NOTICE: Loading player core factory settings from special://masterprofile/playercorefactory.xml.
  45. 19:39:48 T:2693854432 M:936513536  NOTICE: special://masterprofile/playercorefactory.xml does not exist. Skipping.
  46. 19:39:48 T:2693854432 M:936513536  NOTICE: No advancedsettings.xml to load (special://masterprofile/advancedsettings.xml)
  47. 19:39:48 T:2693854432 M:936513536  NOTICE: Default DVD Player: dvdplayer
  48. 19:39:48 T:2693854432 M:936513536  NOTICE: Default Video Player: dvdplayer
  49. 19:39:48 T:2693854432 M:936513536  NOTICE: Default Audio Player: paplayer
  50. 19:39:48 T:2693854432 M:936513536  NOTICE: Loading media sources from special://masterprofile/sources.xml
  51. 19:39:48 T:2693854432 M:933289984  NOTICE: GL_VENDOR = Intel Inc.
  52. 19:39:48 T:2693854432 M:933281792  NOTICE: GL_RENDERER = Intel GMA 950 OpenGL Engine
  53. 19:39:48 T:2693854432 M:933277696  NOTICE: GL_VERSION = 1.4 APPLE-1.6.10
  54. 19:39:48 T:2693854432 M:933277696  NOTICE: GL_EXTENSIONS = GL_ARB_transpose_matrix GL_ARB_vertex_program GL_ARB_vertex_blend GL_ARB_window_pos GL_ARB_shader_objects GL_ARB_vertex_shader GL_ARB_shading_language_100 GL_EXT_multi_draw_arrays GL_EXT_clip_volume_hint GL_EXT_rescale_normal GL_EXT_draw_range_elements GL_EXT_fog_coord GL_EXT_gpu_program_parameters GL_EXT_geometry_shader4 GL_EXT_transform_feedback GL_APPLE_client_storage GL_APPLE_specular_vector GL_APPLE_transform_hint GL_APPLE_packed_pixels GL_APPLE_fence GL_APPLE_vertex_array_object GL_APPLE_vertex_program_evaluators GL_APPLE_element_array GL_APPLE_flush_render GL_APPLE_aux_depth_stencil GL_NV_texgen_reflection GL_NV_light_max_exponent GL_IBM_rasterpos_clip GL_SGIS_generate_mipmap GL_ARB_point_parameters GL_ARB_texture_env_crossbar GL_ARB_texture_border_clamp GL_ARB_multitexture GL_ARB_texture_env_add GL_ARB_texture_cube_map GL_ARB_texture_env_dot3 GL_ARB_texture_env_combine GL_ARB_texture_compression GL_ARB_texture_mirrored_repeat GL_ARB_shadow GL_ARB_depth_texture GL_ARB_fragment_program GL_ARB_fragment_program_shadow GL_ARB_fragment_shader GL_ARB_point_sprite GL_ARB_texture_non_power_of_two GL_ARB_vertex_buffer_object GL_ARB_pixel_buffer_object GL_EXT_framebuffer_object GL_EXT_texture_rectangle GL_ARB_texture_rectangle GL_EXT_texture_env_add GL_EXT_blend_color GL_EXT_blend_minmax GL_EXT_blend_subtract GL_EXT_texture_lod_bias GL_EXT_abgr GL_EXT_bgra GL_EXT_stencil_wrap GL_EXT_texture_filter_anisotropic GL_EXT_separate_specular_color GL_EXT_secondary_color GL_EXT_blend_func_separate GL_EXT_shadow_funcs GL_EXT_stencil_two_side GL_EXT_texture_compression_s3tc GL_EXT_texture_compression_dxt1 GL_EXT_texture_sRGB GL_EXT_blend_equation_separate GL_EXT_packed_depth_stencil GL_EXT_framebuffer_sRGB GL_EXT_provoking_vertex GL_APPLE_flush_buffer_range GL_APPLE_ycbcr_422 GL_APPLE_rgb_422 GL_APPLE_vertex_array_range GL_APPLE_texture_range GL_APPLE_pixel_buffer GL_APPLE_object_purgeable GL_NV_blend_square GL_ATI_texture_env_combine3 GL_ATI_separate_stencil GL_SGIS_texture_edge_clamp GL_SGIS_texture_lod
  55. 19:39:48 T:2693854432 M:926003200    INFO: GL: Maximum texture width: 2048
  56. 19:39:48 T:2693854432 M:926003200    INFO: GL: Maximum texture width: 2048
  57. 19:39:48 T:2693854432 M:926003200    INFO: load language info file: special://xbmc/language/English/langinfo.xml
  58. 19:39:48 T:2693854432 M:925790208    INFO: load default splash image: /Applications/XBMC.app/Contents/Resources/XBMC/media/Splash.png
  59. 19:39:48 T:2693854432 M:925790208   DEBUG: SECTION:LoadDLL(special://xbmc/system/ImageLib-x86-osx.so)
  60. 19:39:48 T:2693854432 M:925786112   DEBUG: Loading: /Applications/XBMC.app/Contents/Resources/XBMC/system/ImageLib-x86-osx.so
  61. 19:39:48 T:2693854432 M:920829952    INFO: load language file:special://xbmc/language/English/strings.xml
  62. 19:39:48 T:2693854432 M:919691264    INFO: load keymapping
  63. 19:39:48 T:2693854432 M:919678976    INFO: Loading special://xbmc/system/keymaps/gamepad.xml
  64. 19:39:48 T:2693854432 M:919678976    INFO: Loading special://xbmc/system/keymaps/joystick.AppleRemote.xml
  65. 19:39:48 T:2693854432 M:919678976    INFO: Loading special://xbmc/system/keymaps/joystick.Harmony.xml
  66. 19:39:48 T:2693854432 M:919678976    INFO: Loading special://xbmc/system/keymaps/joystick.Logitech.RumblePad.2.xml
  67. 19:39:48 T:2693854432 M:919678976    INFO: Loading special://xbmc/system/keymaps/joystick.Microsoft.Xbox.Controller.S.xml
  68. 19:39:48 T:2693854432 M:919678976    INFO: Loading special://xbmc/system/keymaps/joystick.Sony.PLAYSTATION(R)3.Controller.xml
  69. 19:39:48 T:2693854432 M:919678976    INFO: Loading special://xbmc/system/keymaps/joystick.WiiRemote.xml
  70. 19:39:48 T:2693854432 M:919678976    INFO: Loading special://xbmc/system/keymaps/keyboard.xml
  71. 19:39:48 T:2693854432 M:919678976    INFO: Loading special://xbmc/system/keymaps/remote.xml
  72. 19:39:48 T:2693854432 M:919678976    INFO: Checking skin version of: Transparency!
  73. 19:39:48 T:2693854432 M:919670784    INFO: Skin version is: 2.11 (2.110000)
  74. 19:39:48 T:2693854432 M:919670784    INFO: GUI format 1680x1050 1680x1050 @ 60.00 - Full Screen
  75. 19:39:48 T:2693854432 M:919670784    INFO: creating subdirectories
  76. 19:39:48 T:2693854432 M:919670784    INFO: userdata folder: special://masterprofile/
  77. 19:39:48 T:2693854432 M:919670784    INFO: recording folder:
  78. 19:39:48 T:2693854432 M:919670784    INFO: screenshots folder:
  79. 19:39:48 T:2693854432 M:919670784    INFO: thumbnails folder: special://masterprofile/Thumbnails
  80. 19:39:48 T:2693854432 M:919670784  NOTICE: start dvd mediatype detection
  81. 19:39:48 T:2693854432 M:919662592  NOTICE: initializing playlistplayer
  82. 19:39:48 T:2953961472 M:919662592   DEBUG: thread start, auto delete: 0
  83. 19:39:48 T:2693854432 M:919662592  NOTICE: DONE initializing playlistplayer
  84. 19:39:48 T:2953961472 M:919662592   DEBUG: Compiled with libcdio Version 0.81
  85. 19:39:48 T:2693854432 M:919658496   DEBUG: DPMS: supported power-saving modes: OFF STANDBY
  86. 19:39:48 T:2693854432 M:919658496  NOTICE: load default skin:[Transparency!]
  87. 19:39:48 T:2693854432 M:919658496    INFO:   load skin from:special://home/skin/Transparency!
  88. 19:39:48 T:2693854432 M:919658496    INFO:   delete old skin...
  89. 19:39:48 T:2693854432 M:919658496   DEBUG: ------ Window Deinit (Pointer.xml) ------
  90. 19:39:48 T:2693854432 M:919658496   DEBUG: ------ Window Deinit (DialogMuteBug.xml) ------
  91. 19:39:48 T:2693854432 M:919638016    INFO: Default 4:3 resolution directory is special://home/skin/Transparency!/720p
  92. 19:39:48 T:2693854432 M:919638016    INFO: Default 16:9 resolution directory is special://home/skin/Transparency!/720p
  93. 19:39:48 T:2693854432 M:919638016    INFO: Skin version is: 2.11
  94. 19:39:48 T:2693854432 M:919638016    INFO: Loading skin includes from /Users/username/Library/Application Support/XBMC/skin/Transparency!/720p/includes.xml
  95. 19:39:49 T:2693854432 M:912429056    INFO:   load fonts for skin...
  96. 19:39:49 T:2693854432 M:912420864    INFO: Loading fonts from special://home/skin/Transparency!/720p/Font.xml
  97. 19:39:49 T:2693854432 M:911089664    INFO:   load new skin...
  98. 19:39:49 T:2693854432 M:911069184    INFO: Skin version is: 2.11 (2.110000)
  99. 19:39:49 T:2693854432 M:911069184    INFO: Loading skin file: Home.xml
  100. 19:39:49 T:2693854432 M:911065088   ERROR: Error evaluating boolean expression Container(5040).HasFocus(5) + [PVR.IsRecording | PVR.HasTimer] + !Player.HasMedia
  101. 19:39:49 T:2693854432 M:911065088   ERROR: Error evaluating boolean expression !PVR.IsRecording + PVR.HasTimer
  102. 19:39:49 T:2693854432 M:911036416   DEBUG: CDatabase: Connecting to database MyMusic7 at /Users/username/Library/Application Support/XBMC/userdata/Database:
  103. 19:39:49 T:2693854432 M:910938112   DEBUG: Load Home.xml: 123.14ms
  104. 19:39:49 T:2693854432 M:910938112    INFO: Loading user windows, path special://home/skin/Transparency!/720p
  105. 19:39:49 T:2693854432 M:910905344    INFO: Loading skin file: special://home/skin/Transparency!/720p/custom_SkinSettings.xml
  106. 19:39:49 T:2693854432 M:909918208    INFO: Loading skin file: special://home/skin/Transparency!/720p/custom_DialogPlot.xml
  107. 19:39:49 T:2693854432 M:909893632    INFO: Loading skin file: special://home/skin/Transparency!/720p/custom_DialogFavourites.xml
  108. 19:39:49 T:2693854432 M:909893632    INFO: Loading skin file: special://home/skin/Transparency!/720p/custom_DialogDebug.xml
  109. 19:39:49 T:2693854432 M:909893632    INFO: Loading user windows, path special://home/skin/Transparency!/720p
  110. 19:39:49 T:2693854432 M:909893632    INFO: Loading skin file: special://home/skin/Transparency!/720p/custom_SkinSettings.xml
  111. 19:39:49 T:2693854432 M:909524992    INFO: Loading skin file: special://home/skin/Transparency!/720p/custom_DialogPlot.xml
  112. 19:39:49 T:2693854432 M:909504512    INFO: Loading skin file: special://home/skin/Transparency!/720p/custom_DialogFavourites.xml
  113. 19:39:49 T:2693854432 M:909504512    INFO: Loading skin file: special://home/skin/Transparency!/720p/custom_DialogDebug.xml
  114. 19:39:49 T:2693854432 M:909504512    INFO: Loading user windows, path special://home/skin/Transparency!/720p
  115. 19:39:49 T:2693854432 M:909504512    INFO: Loading skin file: special://home/skin/Transparency!/720p/custom_SkinSettings.xml
  116. 19:39:49 T:2693854432 M:909135872    INFO: Loading skin file: special://home/skin/Transparency!/720p/custom_DialogPlot.xml
  117. 19:39:49 T:2693854432 M:909135872    INFO: Loading skin file: special://home/skin/Transparency!/720p/custom_DialogFavourites.xml
  118. 19:39:49 T:2693854432 M:909135872    INFO: Loading skin file: special://home/skin/Transparency!/720p/custom_DialogDebug.xml
  119. 19:39:49 T:2693854432 M:909135872   DEBUG: Load Skin XML: 393.25ms
  120. 19:39:49 T:2693854432 M:909135872    INFO:   initialize new skin...
  121. 19:39:49 T:2693854432 M:909135872    INFO: Loading skin file: Pointer.xml
  122. 19:39:49 T:2693854432 M:908656640   DEBUG: Load Pointer.xml: 3.98ms
  123. 19:39:49 T:2693854432 M:908435456   DEBUG: Alloc resources: 21.82ms (4.11 ms skin load)
  124. 19:39:49 T:2693854432 M:908435456    INFO: Loading skin file: DialogVolumeBar.xml
  125. 19:39:49 T:2693854432 M:908423168   DEBUG: Load DialogVolumeBar.xml: 4.72ms
  126. 19:39:49 T:2693854432 M:908382208   DEBUG: Alloc resources: 12.61ms (4.82 ms skin load)
  127. 19:39:49 T:2693854432 M:908382208    INFO: Loading skin file: DialogSeekBar.xml
  128. 19:39:49 T:2693854432 M:908365824   DEBUG: Load DialogSeekBar.xml: 14.97ms
  129. 19:39:49 T:2693854432 M:908333056   DEBUG: Alloc resources: 39.14ms (15.09 ms skin load)
  130. 19:39:49 T:2693854432 M:908333056    INFO: Loading skin file: DialogKaiToast.xml
  131. 19:39:49 T:2693854432 M:908333056   DEBUG: Load DialogKaiToast.xml: 3.92ms
  132. 19:39:49 T:2693854432 M:908333056   DEBUG: Alloc resources: 4.03ms (4.02 ms skin load)
  133. 19:39:49 T:2693854432 M:908333056    INFO: Loading skin file: DialogMuteBug.xml
  134. 19:39:49 T:2693854432 M:908328960   DEBUG: Load DialogMuteBug.xml: 4.94ms
  135. 19:39:49 T:2693854432 M:908328960   DEBUG: Alloc resources: 5.06ms (5.03 ms skin load)
  136. 19:39:49 T:2693854432 M:908328960    INFO:   skin loaded...
  137. 19:39:49 T:2693854432 M:908328960   DEBUG: CDatabase: Connecting to database ViewModes at /Users/username/Library/Application Support/XBMC/userdata/Database:
  138. 19:39:49 T:2693854432 M:908316672   DEBUG: CDatabase: Connecting to database ViewModes at /Users/username/Library/Application Support/XBMC/userdata/Database:
  139. 19:39:49 T:2693854432 M:908316672   DEBUG: CDatabase: Connecting to database ViewModes at /Users/username/Library/Application Support/XBMC/userdata/Database:
  140. 19:39:49 T:2693854432 M:908300288   DEBUG: CDatabase: Connecting to database ViewModes at /Users/username/Library/Application Support/XBMC/userdata/Database:
  141. 19:39:49 T:2693854432 M:908300288   DEBUG: CDatabase: Connecting to database ViewModes at /Users/username/Library/Application Support/XBMC/userdata/Database:
  142. 19:39:49 T:2693854432 M:908300288   DEBUG: CDatabase: Connecting to database ViewModes at /Users/username/Library/Application Support/XBMC/userdata/Database:
  143. 19:39:49 T:2693854432 M:908300288   DEBUG: SECTION:LoadDLL(special://xbmc/system/libcurl-x86-osx.so)
  144. 19:39:49 T:2693854432 M:908300288   DEBUG: Loading: /Applications/XBMC.app/Contents/Resources/XBMC/system/libcurl-x86-osx.so
  145. 19:39:49 T:2693854432 M:908263424   DEBUG: CDatabase: Connecting to database ViewModes at /Users/username/Library/Application Support/XBMC/userdata/Database:
  146. 19:39:49 T:2693854432 M:908193792   DEBUG: CDatabase: Connecting to database ViewModes at /Users/username/Library/Application Support/XBMC/userdata/Database:
  147. 19:39:50 T:2693854432 M:908181504   DEBUG: CDatabase: Connecting to database ViewModes at /Users/username/Library/Application Support/XBMC/userdata/Database:
  148. 19:39:50 T:2693854432 M:908181504   DEBUG: CDatabase: Connecting to database ViewModes at /Users/username/Library/Application Support/XBMC/userdata/Database:
  149. 19:39:50 T:2693854432 M:908165120   DEBUG: Activating window ID: 12999
  150. 19:39:50 T:2693854432 M:908165120   DEBUG: Checking if window ID 12999 is locked.
  151. 19:39:50 T:2693854432 M:908165120   DEBUG: ------ Window Init (Startup.xml) ------
  152. 19:39:50 T:2693854432 M:908165120    INFO: Loading skin file: Startup.xml
  153. 19:39:50 T:2693854432 M:908132352   DEBUG: Load Startup.xml: 4.29ms
  154. 19:39:50 T:2693854432 M:908132352   DEBUG: Alloc resources: 4.40ms (4.39 ms skin load)
  155. 19:39:50 T:2693854432 M:908132352    INFO: removing tempfiles
  156. 19:39:50 T:2693854432 M:908132352  NOTICE: UpdateLibraries - Starting video library startup scan
  157. 19:39:50 T:2693854432 M:908132352   DEBUG: ------ Window Init (DialogVideoScan.xml) ------
  158. 19:39:50 T:2693854432 M:908132352    INFO: Loading skin file: DialogVideoScan.xml
  159. 19:39:50 T:2693854432 M:908132352   DEBUG: Load DialogVideoScan.xml: 5.05ms
  160. 19:39:50 T:2693854432 M:908132352   DEBUG: Alloc resources: 5.19ms (5.14 ms skin load)
  161. 19:39:50 T:2693854432 M:908132352   DEBUG: CDatabase: Connecting to database MyVideos34.db at /Users/username/Library/Application Support/XBMC/userdata/Database:
  162. 19:39:50 T:2954493952 M:907771904   DEBUG: thread start, auto delete: 0
  163. 19:39:50 T:2693854432 M:907771904  NOTICE: initialize done
  164. 19:39:50 T:2954493952 M:907767808   DEBUG: CDatabase: Connecting to database MyVideos34.db at /Users/username/Library/Application Support/XBMC/userdata/Database:
  165. 19:39:50 T:2693854432 M:907763712  NOTICE: Running the application...
  166. 19:39:50 T:2693854432 M:907763712   DEBUG: ExecuteXBMCAction : Translating Skin.SetBool(Startup)
  167. 19:39:50 T:2693854432 M:907763712   DEBUG: ExecuteXBMCAction : To Skin.SetBool(Startup)
  168. 19:39:50 T:2954493952 M:907763712   DEBUG: Process - Starting scan
  169. 19:39:50 T:2955026432 M:907698176   DEBUG: thread start, auto delete: 0
  170. 19:39:50 T:2955026432 M:907694080   DEBUG: Thread 2955026432 terminating
  171. 19:39:50 T:2954493952 M:907489280   DEBUG: DoScan Scanning dir '/Volumes/backup/videos/movie_rips/' as not in the database
  172. 19:39:50 T:2954493952 M:907489280   DEBUG: Hash[movies,/Volumes/backup/videos/movie_rips/]:DB=[],Computed=[C3409049598F4332C4B837FA1816096D]
  173. 19:39:50 T:2954493952 M:907489280   DEBUG: CDatabase: Connecting to database MyVideos34.db at /Users/username/Library/Application Support/XBMC/userdata/Database:
  174. 19:39:50 T:2693854432 M:907489280   DEBUG: ExecuteXBMCAction : Translating ReplaceWindow(Home)
  175. 19:39:50 T:2693854432 M:907489280   DEBUG: ExecuteXBMCAction : To ReplaceWindow(Home)
  176. 19:39:50 T:2693854432 M:907489280   DEBUG: Activating window ID: 10000
  177. 19:39:50 T:2693854432 M:907489280   DEBUG: Checking if window ID 10000 is locked.
  178. 19:39:50 T:2693854432 M:907489280   DEBUG: ------ Window Deinit (Startup.xml) ------
  179. 19:39:50 T:2693854432 M:907489280   DEBUG: ------ Window Init (Home.xml) ------
  180. 19:39:50 T:2693854432 M:907489280   DEBUG: Alloc resources: 0.11ms (0.01 ms skin load)
  181. 19:39:50 T:2693854432 M:907489280   DEBUG: ExecuteXBMCAction : Translating Skin.SetBool(LibraryUpdated)
  182. 19:39:50 T:2693854432 M:907489280   DEBUG: ExecuteXBMCAction : To Skin.SetBool(LibraryUpdated)
  183. 19:39:50 T:2954493952 M:907489280   DEBUG: CDatabase: Connecting to database MyVideos34.db at /Users/username/Library/Application Support/XBMC/userdata/Database:
  184. 19:39:50 T:2954493952 M:907243520   DEBUG: CDatabase: Connecting to database MyVideos34.db at /Users/username/Library/Application Support/XBMC/userdata/Database:
  185. 19:39:50 T:2693854432 M:907243520   DEBUG: Process - no user autoexec.py (/Users/username/Library/Application Support/XBMC/scripts/autoexec.py) found, skipping
  186. 19:39:50 T:2693854432 M:907243520   DEBUG: Process - no system autoexec.py (/Applications/XBMC.app/Contents/Resources/XBMC/scripts/autoexec.py) found, skipping
  187. 19:39:50 T:2693854432 M:907243520   DEBUG: NetworkMessage - Starting network services
  188. 19:39:50 T:2693854432 M:907243520  NOTICE: starting upnp server
  189. 19:39:50 T:2954493952 M:907173888   DEBUG: Not adding item to library as no info was found :(
  190. 19:39:50 T:2954493952 M:907173888   DEBUG: DoScan - Finished dir: /Volumes/backup/videos/movie_rips/
  191. 19:39:50 T:2954493952 M:907173888   DEBUG: DoScan Skipping dir '/Volumes/backup/videos/movie_rips/1080p/' due to no change
  192. 19:39:50 T:2954493952 M:907173888   DEBUG: Hash[movies,/Volumes/backup/videos/movie_rips/1080p/]:DB=[760F56852BA7BD8104EF3806A0319D38],Computed=[760F56852BA7BD8104EF3806A0319D38]
  193. 19:39:50 T:2954493952 M:907173888   DEBUG: DoScan - Finished dir: /Volumes/backup/videos/movie_rips/1080p/
  194. 19:39:50 T:2693854432 M:907169792  NOTICE: ES: Starting event server
  195. 19:39:50 T:2957156352 M:907157504   DEBUG: thread start, auto delete: 0
  196. 19:39:50 T:2693854432 M:907153408  NOTICE: starting zeroconf publishing
  197. 19:39:50 T:2957156352 M:907149312  NOTICE: ES: Starting UDP Event server on 127.0.0.1:9777
  198. 19:39:50 T:2693854432 M:907149312   DEBUG: CZeroconfOSX::doPublishService identifier: servers.jsonrpc type: _xbmc-jsonrpc._tcp name:XBMC JSONRPC port:9090
  199. 19:39:50 T:2957688832 M:907149312   DEBUG: thread start, auto delete: 0
  200. 19:39:50 T:2957156352 M:907149312  NOTICE: UDP: Listening on port 9777
  201. 19:39:50 T:2957688832 M:907149312   ERROR: JSONRPC Server: Failed to bind serversocket
  202. 19:39:50 T:2957688832 M:907145216   DEBUG: Thread 2957688832 terminating
  203. 19:39:50 T:2693854432 M:907128832   DEBUG: CLastfmScrobbler: Clearing session.
  204. 19:39:50 T:2693854432 M:907128832   DEBUG: CLibrefmScrobbler: Clearing session.
  205. 19:39:50 T:2957156352 M:907120640   DEBUG: CZeroconfOSX::doPublishService identifier: servers.eventserver type: _xbmc-events._udp name:XBMC Event Server port:9777
  206. 19:39:50 T:2954493952 M:907112448   DEBUG: DoScan Skipping dir '/Volumes/backup/videos/movie_rips/480p/' due to no change
  207. 19:39:50 T:2954493952 M:907112448   DEBUG: Hash[movies,/Volumes/backup/videos/movie_rips/480p/]:DB=[F5B6842F5A7F8A74B778A7908DA435A3],Computed=[F5B6842F5A7F8A74B778A7908DA435A3]
  208. 19:39:50 T:2954493952 M:907112448   DEBUG: DoScan - Finished dir: /Volumes/backup/videos/movie_rips/480p/
  209. 19:39:50 T:2693854432 M:907116544    INFO: GL: Enabling VSYNC
  210. 19:39:50 T:2693854432 M:907116544    INFO: GL: Selected vsync mode 10
  211. 19:39:50 T:2958221312 M:907108352   DEBUG: thread start, auto delete: 1
  212. 19:39:50 T:2958753792 M:907059200   DEBUG: thread start, auto delete: 1
  213. 19:39:50 T:2954493952 M:906571776   DEBUG: Hash[tvshows,/Volumes/backup/videos/tv_shows/]:DB=[6DB4B149633366278F150D21E4F01191],Computed=[6DB4B149633366278F150D21E4F01191]
  214. 19:39:50 T:2954493952 M:906571776   DEBUG: DoScan - Finished dir: /Volumes/backup/videos/tv_shows/
  215. 19:39:50 T:2954493952 M:906563584   DEBUG: Hash[tvshows,/Volumes/backup/videos/tv_shows/24/]:DB=[],Computed=[]
  216. 19:39:50 T:2958221312 M:900005888   DEBUG: DoWork - took 112 ms to load special://skin/images/backgrounds/videos.jpg
  217. 19:39:50 T:2954493952 M:898945024   DEBUG: Not adding item to library as no info was found :(
  218. 19:39:50 T:2954493952 M:898932736   DEBUG: DoScan - Finished dir: /Volumes/backup/videos/tv_shows/24/
  219. 19:39:50 T:2954493952 M:898338816   DEBUG: Hash[tvshows,/Volumes/backup/videos/tv_shows/better.off.ted/]:DB=[],Computed=[]
  220. 19:39:50 T:2954493952 M:898322432   DEBUG: Not adding item to library as no info was found :(
  221. 19:39:50 T:2954493952 M:898322432   DEBUG: DoScan - Finished dir: /Volumes/backup/videos/tv_shows/better.off.ted/
  222. 19:39:50 T:2954493952 M:898023424   DEBUG: Hash[tvshows,/Volumes/backup/videos/tv_shows/bonekickers/]:DB=[],Computed=[]
  223. 19:39:50 T:2954637312 M:896950272   DEBUG: thread start, auto delete: 0
  224. 19:39:50 T:2954637312 M:896950272   DEBUG: FileCurl::Open(0xb01c2da0) http://feeds.feedburner.com/xbmc
  225. 19:39:50 T:2954637312 M:896946176    INFO: easy_aquire - Created session to http://feeds.feedburner.com
  226. 19:39:50 T:2693854432 M:897998848   DEBUG: ExecuteXBMCAction : Translating XBMC.RunScript(special://skin/scripts/RecentlyAdded.py,limit=3&albums=True&totals=True)
  227. 19:39:50 T:2693854432 M:897986560   DEBUG: ExecuteXBMCAction : To XBMC.RunScript(special://skin/scripts/RecentlyAdded.py,limit=3&albums=True&totals=True)
  228. 19:39:50 T:2693854432 M:898011136    INFO: initializing python engine.
  229. 19:39:50 T:2693854432 M:898011136   DEBUG: Loading: /Applications/XBMC.app/Contents/Resources/XBMC/system/python/python24-x86-osx.so
  230. 19:39:50 T:2954493952 M:897867776   DEBUG: Not adding item to library as no info was found :(
  231. 19:39:50 T:2954493952 M:897867776   DEBUG: DoScan - Finished dir: /Volumes/backup/videos/tv_shows/bonekickers/
  232. 19:39:50 T:2954493952 M:897843200   DEBUG: Hash[tvshows,/Volumes/backup/videos/tv_shows/bored.to.death/]:DB=[],Computed=[]
  233. 19:39:50 T:2693854432 M:897843200   DEBUG: Python wrapper library linked with internal Python library
  234. 19:39:50 T:2954493952 M:897843200   DEBUG: Not adding item to library as no info was found :(
  235. 19:39:50 T:2954493952 M:897843200   DEBUG: DoScan - Finished dir: /Volumes/backup/videos/tv_shows/bored.to.death/
  236. 19:39:50 T:2954493952 M:897794048   DEBUG: Hash[tvshows,/Volumes/backup/videos/tv_shows/boston.legal/]:DB=[],Computed=[]
  237. 19:39:50 T:2954493952 M:897531904   DEBUG: Not adding item to library as no info was found :(
  238. 19:39:50 T:2954493952 M:897531904   DEBUG: DoScan - Finished dir: /Volumes/backup/videos/tv_shows/boston.legal/
  239. 19:39:50 T:2954493952 M:897503232   DEBUG: Hash[tvshows,/Volumes/backup/videos/tv_shows/breaking.bad/]:DB=[],Computed=[]
  240. 19:39:50 T:2954493952 M:897404928   DEBUG: Not adding item to library as no info was found :(
  241. 19:39:50 T:2954493952 M:897404928   DEBUG: DoScan - Finished dir: /Volumes/backup/videos/tv_shows/breaking.bad/
  242. 19:39:50 T:2954493952 M:897368064   DEBUG: Hash[tvshows,/Volumes/backup/videos/tv_shows/burn.notice/]:DB=[],Computed=[]
  243. 19:39:50 T:2693854432 M:897245184   DEBUG: new python thread created. id=1
  244. 19:39:50 T:2693854432 M:897241088   DEBUG: ExecuteXBMCAction : Translating Skin.Reset(Startup)
  245. 19:39:50 T:2693854432 M:897241088   DEBUG: ExecuteXBMCAction : To Skin.Reset(Startup)
  246. 19:39:50 T:2959286272 M:897269760   DEBUG: thread start, auto delete: 0
  247. 19:39:50 T:2959286272 M:897269760   DEBUG: Python thread: start processing
  248. 19:39:50 T:2693854432 M:897052672   DEBUG: ExecuteXBMCAction : Translating SetFocus(9000)
  249. 19:39:50 T:2693854432 M:897048576   DEBUG: ExecuteXBMCAction : To SetFocus(9000)
  250. 19:39:50 T:2958753792 M:889643008    INFO: WEATHER: Downloading weather
  251. 19:39:50 T:2958753792 M:889581568   DEBUG: FileCurl::Open(0xb05afdac) http://xoap.weather.com/weather/local/USDC0001?cc=*&unit=m&dayf=4&prod=xoap&link=xoap&par=1004124588&key=079f24145f208494
  252. 19:39:50 T:2958753792 M:889569280    INFO: easy_aquire - Created session to http://xoap.weather.com
  253. 19:39:50 T:2959286272 M:889516032  NOTICE: -->Python Interpreter Initialized<--
  254. 19:39:50 T:2959286272 M:889511936   DEBUG: Process - The source file to load is special://skin/scripts/RecentlyAdded.py
  255. 19:39:50 T:2959286272 M:889511936   DEBUG: Process - Setting the Python path to /Users/username/Library/Application Support/XBMC/skin/Transparency!/scripts:/Applications/XBMC.app/Contents/Resources/XBMC/system/python/Lib:/Applications/XBMC.app/Contents/Resources/XBMC/system/python/lib/python24.zip:/Applications/XBMC.app/Contents/Resources/XBMC/system/python/lib/python2.4/:/Applications/XBMC.app/Contents/Resources/XBMC/system/python/lib/python2.4/plat-darwin:/Applications/XBMC.app/Contents/Resources/XBMC/system/python/lib/python2.4/plat-mac:/Applications/XBMC.app/Contents/Resources/XBMC/system/python/lib/python2.4/plat-mac/lib-scriptpackages:/Applications/XBMC.app/Contents/Resources/XBMC/system/python/lib/python2.4/lib-tk:/Applications/XBMC.app/Contents/Resources/XBMC/system/python/lib/python2.4/lib-dynload
  256. 19:39:50 T:2959286272 M:889511936   DEBUG: Process - Entering source directory /Users/username/Library/Application Support/XBMC/skin/Transparency!/scripts
  257. 19:39:50 T:2954637312 M:889536512   DEBUG: FileCurl::Close(0xb01c2da0) http://feeds.feedburner.com/xbmc
  258. 19:39:50 T:2954637312 M:889536512   DEBUG: Got rss feed: http://feeds.feedburner.com/xbmc
  259. 19:39:50 T:2954637312 M:889483264   DEBUG: RSS feed encoding: UTF-8
  260. 19:39:50 T:2954637312 M:889233408   DEBUG: Parsed rss feed: http://feeds.feedburner.com/xbmc
  261. 19:39:50 T:2954637312 M:888975360   DEBUG: Thread 2954637312 terminating
  262. 19:39:50 T:2954493952 M:888643584   DEBUG: Not adding item to library as no info was found :(
  263. 19:39:50 T:2954493952 M:888643584   DEBUG: DoScan - Finished dir: /Volumes/backup/videos/tv_shows/burn.notice/
  264. 19:39:50 T:2954493952 M:888643584   DEBUG: Hash[tvshows,/Volumes/backup/videos/tv_shows/californication/]:DB=[],Computed=[]
  265. 19:39:50 T:2954493952 M:888520704   DEBUG: Not adding item to library as no info was found :(
  266. 19:39:50 T:2954493952 M:888520704   DEBUG: DoScan - Finished dir: /Volumes/backup/videos/tv_shows/californication/
  267. 19:39:50 T:2954493952 M:888553472   DEBUG: Hash[tvshows,/Volumes/backup/videos/tv_shows/cane/]:DB=[],Computed=[]
  268. 19:39:50 T:2954493952 M:888680448   DEBUG: Not adding item to library as no info was found :(
  269. 19:39:50 T:2954493952 M:888680448   DEBUG: DoScan - Finished dir: /Volumes/backup/videos/tv_shows/cane/
  270. 19:39:50 T:2958753792 M:888676352   DEBUG: FileCurl::Close(0xb05afdac) http://xoap.weather.com/weather/local/USDC0001?cc=*&unit=m&dayf=4&prod=xoap&link=xoap&par=1004124588&key=079f24145f208494
  271. 19:39:50 T:2958753792 M:888676352    INFO: WEATHER: Weather download successful
  272. 19:39:50 T:2958753792 M:888676352   DEBUG: GetZipList - Processing zip://special%3a%2f%2fxbmc%2fmedia%2fweather%2ezip/
  273. 19:39:50 T:2954493952 M:888537088   DEBUG: Hash[tvshows,/Volumes/backup/videos/tv_shows/caprica/]:DB=[],Computed=[]
  274. 19:39:50 T:2954493952 M:889290752   DEBUG: Not adding item to library as no info was found :(
  275. 19:39:50 T:2954493952 M:889290752   DEBUG: DoScan - Finished dir: /Volumes/backup/videos/tv_shows/caprica/
  276. 19:39:50 T:2693854432 M:889270272   DEBUG: HttpApi Start command: SetResponseFormat  paras: SetResponseFormat
  277. 19:39:50 T:2954493952 M:889225216   DEBUG: Hash[tvshows,/Volumes/backup/videos/tv_shows/cashmere.mafia/]:DB=[],Computed=[]
  278. 19:39:51 T:2693854432 M:889225216   DEBUG: HttpApi Start command: SetResponseFormat  paras: SetResponseFormat; OpenRecord;<record>
  279. 19:39:51 T:2693854432 M:889188352   DEBUG: HttpApi Start command: SetResponseFormat  paras: SetResponseFormat; CloseRecord;</record>
  280. 19:39:51 T:2954493952 M:889204736   DEBUG: Not adding item to library as no info was found :(
  281. 19:39:51 T:2954493952 M:889204736   DEBUG: DoScan - Finished dir: /Volumes/backup/videos/tv_shows/cashmere.mafia/
  282. 19:39:51 T:2954493952 M:889180160   DEBUG: Hash[tvshows,/Volumes/backup/videos/tv_shows/chuck/]:DB=[],Computed=[]
  283. 19:39:51 T:2693854432 M:889176064   DEBUG: HttpApi Start command: QueryVideoDatabase  paras: QueryVideoDatabase; select count(1), count(playCount), movieview.* from movieview group by lastPlayed
  284. 19:39:51 T:2693854432 M:889176064   DEBUG: CDatabase: Connecting to database MyVideos34.db at /Users/username/Library/Application Support/XBMC/userdata/Database:
  285. 19:39:51 T:2693854432 M:888938496   DEBUG: HttpApi Start command: QueryVideoDatabase  paras: QueryVideoDatabase; select count(1), count(playCount) from musicvideoview
  286. 19:39:51 T:2693854432 M:888938496   DEBUG: CDatabase: Connecting to database MyVideos34.db at /Users/username/Library/Application Support/XBMC/userdata/Database:
  287. 19:39:51 T:2693854432 M:888897536   DEBUG: HttpApi Start command: QueryVideoDatabase  paras: [not recorded]
  288. 19:39:51 T:2693854432 M:888897536   DEBUG: CDatabase: Connecting to database MyVideos34.db at /Users/username/Library/Application Support/XBMC/userdata/Database:
  289. 19:39:51 T:2693854432 M:886759424   DEBUG: HttpApi Start command: QueryMusicDatabase  paras: QueryMusicDatabase; select count(1), count(distinct strAlbum), count(distinct strArtist) from songview
  290. 19:39:51 T:2693854432 M:886759424   DEBUG: CDatabase: Connecting to database MyMusic7 at /Users/username/Library/Application Support/XBMC/userdata/Database:
  291. 19:39:51 T:2954493952 M:886759424   DEBUG: Not adding item to library as no info was found :(
  292. 19:39:51 T:2954493952 M:886759424   DEBUG: DoScan - Finished dir: /Volumes/backup/videos/tv_shows/chuck/
  293. 19:39:51 T:2954493952 M:886755328   DEBUG: Hash[tvshows,/Volumes/backup/videos/tv_shows/cupid/]:DB=[],Computed=[]
  294. 19:39:51 T:2954493952 M:886755328   DEBUG: Not adding item to library as no info was found :(
  295. 19:39:51 T:2954493952 M:886755328   DEBUG: DoScan - Finished dir: /Volumes/backup/videos/tv_shows/cupid/
  296. 19:39:51 T:2954493952 M:886755328   DEBUG: Hash[tvshows,/Volumes/backup/videos/tv_shows/damages/]:DB=[],Computed=[]
  297. 19:39:51 T:2693854432 M:886755328   DEBUG: HttpApi Start command: QueryVideoDatabase  paras: QueryVideoDatabase; select * from movieview order by idMovie desc limit 3
  298. 19:39:51 T:2693854432 M:886755328   DEBUG: CDatabase: Connecting to database MyVideos34.db at /Users/username/Library/Application Support/XBMC/userdata/Database:
  299. 19:39:51 T:2954493952 M:886673408   DEBUG: Not adding item to library as no info was found :(
  300. 19:39:51 T:2954493952 M:886673408   DEBUG: DoScan - Finished dir: /Volumes/backup/videos/tv_shows/damages/
  301. 19:39:51 T:2954493952 M:886673408   DEBUG: Hash[tvshows,/Volumes/backup/videos/tv_shows/dark.blue/]:DB=[],Computed=[]
  302. 19:39:51 T:2954493952 M:886706176   DEBUG: Not adding item to library as no info was found :(
  303. 19:39:51 T:2954493952 M:886706176   DEBUG: DoScan - Finished dir: /Volumes/backup/videos/tv_shows/dark.blue/
  304. 19:39:51 T:2954493952 M:886697984   DEBUG: Hash[tvshows,/Volumes/backup/videos/tv_shows/day.break/]:DB=[],Computed=[]
  305. 19:39:51 T:2954493952 M:886689792   DEBUG: Not adding item to library as no info was found :(
  306. 19:39:51 T:2954493952 M:886689792   DEBUG: DoScan - Finished dir: /Volumes/backup/videos/tv_shows/day.break/
  307. 19:39:51 T:2954493952 M:886689792   DEBUG: Hash[tvshows,/Volumes/backup/videos/tv_shows/dexter/]:DB=[],Computed=[]
  308. 19:39:51 T:2693854432 M:886689792   DEBUG: HttpApi Start command: QueryVideoDatabase  paras: QueryVideoDatabase; select * from episodeview order by idepisode desc limit 3
  309. 19:39:51 T:2693854432 M:886689792   DEBUG: CDatabase: Connecting to database MyVideos34.db at /Users/username/Library/Application Support/XBMC/userdata/Database:
  310. 19:39:51 T:2693854432 M:886566912   DEBUG: HttpApi Start command: QueryMusicDatabase  paras: QueryMusicDatabase; select idAlbum from albumview order by idAlbum desc limit 3
  311. 19:39:51 T:2693854432 M:886566912   DEBUG: CDatabase: Connecting to database MyMusic7 at /Users/username/Library/Application Support/XBMC/userdata/Database:
  312. 19:39:51 T:2959286272 M:886554624    INFO: Scriptresult: Success
  313. 19:39:51 T:2954493952 M:885268480   DEBUG: Not adding item to library as no info was found :(
  314. 19:39:51 T:2954493952 M:885268480   DEBUG: DoScan - Finished dir: /Volumes/backup/videos/tv_shows/dexter/
  315. 19:39:51 T:2954493952 M:885268480   DEBUG: Hash[tvshows,/Volumes/backup/videos/tv_shows/doctor.who.2005/]:DB=[],Computed=[]
  316. 19:39:51 T:2954493952 M:885415936   DEBUG: Not adding item to library as no info was found :(
  317. 19:39:51 T:2954493952 M:885415936   DEBUG: DoScan - Finished dir: /Volumes/backup/videos/tv_shows/doctor.who.2005/
  318. 19:39:51 T:2954493952 M:885415936   DEBUG: Hash[tvshows,/Volumes/backup/videos/tv_shows/dollhouse/]:DB=[],Computed=[]
  319. 19:39:51 T:2954493952 M:885415936   DEBUG: Not adding item to library as no info was found :(
  320. 19:39:51 T:2954493952 M:885415936   DEBUG: DoScan - Finished dir: /Volumes/backup/videos/tv_shows/dollhouse/
  321. 19:39:51 T:2954493952 M:885411840   DEBUG: Hash[tvshows,/Volumes/backup/videos/tv_shows/echo.beach/]:DB=[],Computed=[]
  322. 19:39:51 T:2954493952 M:885403648   DEBUG: Not adding item to library as no info was found :(
  323. 19:39:51 T:2954493952 M:885403648   DEBUG: DoScan - Finished dir: /Volumes/backup/videos/tv_shows/echo.beach/
  324. 19:39:51 T:2954493952 M:885403648   DEBUG: Hash[tvshows,/Volumes/backup/videos/tv_shows/eli.stone/]:DB=[],Computed=[]
  325. 19:39:51 T:2954493952 M:886120448   DEBUG: Not adding item to library as no info was found :(
  326. 19:39:51 T:2954493952 M:886120448   DEBUG: DoScan - Finished dir: /Volumes/backup/videos/tv_shows/eli.stone/
  327. 19:39:51 T:2954493952 M:886067200   DEBUG: Hash[tvshows,/Volumes/backup/videos/tv_shows/entourage/]:DB=[],Computed=[]
  328. 19:39:51 T:2954493952 M:886009856   DEBUG: Not adding item to library as no info was found :(
  329. 19:39:51 T:2954493952 M:886009856   DEBUG: DoScan - Finished dir: /Volumes/backup/videos/tv_shows/entourage/
  330. 19:39:51 T:2954493952 M:886009856   DEBUG: Hash[tvshows,/Volumes/backup/videos/tv_shows/firefly/]:DB=[],Computed=[]
  331. 19:39:51 T:2954493952 M:886009856   DEBUG: Not adding item to library as no info was found :(
  332. 19:39:51 T:2954493952 M:886009856   DEBUG: DoScan - Finished dir: /Volumes/backup/videos/tv_shows/firefly/
  333. 19:39:51 T:2954493952 M:886005760   DEBUG: Hash[tvshows,/Volumes/backup/videos/tv_shows/flashforward/]:DB=[],Computed=[]
  334. 19:39:51 T:2954493952 M:886005760   DEBUG: Not adding item to library as no info was found :(
  335. 19:39:51 T:2954493952 M:886005760   DEBUG: DoScan - Finished dir: /Volumes/backup/videos/tv_shows/flashforward/
  336. 19:39:51 T:2954493952 M:886005760   DEBUG: Hash[tvshows,/Volumes/backup/videos/tv_shows/flight.of.the.conchords/]:DB=[],Computed=[]
  337. 19:39:52 T:2954493952 M:886001664   DEBUG: Not adding item to library as no info was found :(
  338. 19:39:52 T:2954493952 M:886001664   DEBUG: DoScan - Finished dir: /Volumes/backup/videos/tv_shows/flight.of.the.conchords/
  339. 19:39:52 T:2954493952 M:886001664   DEBUG: Hash[tvshows,/Volumes/backup/videos/tv_shows/fringe/]:DB=[],Computed=[]
  340. 19:39:52 T:2954493952 M:885985280   DEBUG: Not adding item to library as no info was found :(
  341. 19:39:52 T:2954493952 M:885985280   DEBUG: DoScan - Finished dir: /Volumes/backup/videos/tv_shows/fringe/
  342. 19:39:52 T:2959286272 M:885985280    INFO: Python script stopped
  343. 19:39:52 T:2959286272 M:885985280   DEBUG: Thread 2959286272 terminating
  344. 19:39:52 T:2693854432 M:886050816   DEBUG: python thread 1 destructed
  345. 19:39:52 T:2954493952 M:886050816   DEBUG: Hash[tvshows,/Volumes/backup/videos/tv_shows/gary.unmarried/]:DB=[],Computed=[]
  346. 19:39:52 T:2954493952 M:886050816   DEBUG: Not adding item to library as no info was found :(
  347. 19:39:52 T:2954493952 M:886050816   DEBUG: DoScan - Finished dir: /Volumes/backup/videos/tv_shows/gary.unmarried/
  348. 19:39:52 T:2954493952 M:886050816   DEBUG: Hash[tvshows,/Volumes/backup/videos/tv_shows/greek/]:DB=[],Computed=[]
  349. 19:39:52 T:2954493952 M:886026240   DEBUG: Not adding item to library as no info was found :(
  350. 19:39:52 T:2954493952 M:886026240   DEBUG: DoScan - Finished dir: /Volumes/backup/videos/tv_shows/greek/
  351. 19:39:52 T:2954493952 M:886005760   DEBUG: Hash[tvshows,/Volumes/backup/videos/tv_shows/heist/]:DB=[],Computed=[]
  352. 19:39:52 T:2693854432 M:886005760   DEBUG: SDLKeyboard: scancode: 36, sym: 13, unicode: 13, modifier: 0
  353. 19:39:52 T:2693854432 M:886005760   DEBUG: OnKey: 61453 pressed, action is Select
  354. 19:39:52 T:2693854432 M:886005760   DEBUG: ExecuteXBMCAction : Translating ActivateWindow(VideoFiles)
  355. 19:39:52 T:2693854432 M:886005760   DEBUG: ExecuteXBMCAction : To ActivateWindow(VideoFiles)
  356. 19:39:52 T:2693854432 M:886005760   DEBUG: Activating window ID: 10024
  357. 19:39:52 T:2693854432 M:886005760   DEBUG: Checking if window ID 10024 is locked.
  358. 19:39:52 T:2693854432 M:886005760   DEBUG: ------ Window Deinit (Home.xml) ------
  359. 19:39:52 T:2954493952 M:886001664   DEBUG: Not adding item to library as no info was found :(
  360. 19:39:52 T:2954493952 M:886001664   DEBUG: DoScan - Finished dir: /Volumes/backup/videos/tv_shows/heist/
  361. 19:39:52 T:2954493952 M:886001664   DEBUG: Hash[tvshows,/Volumes/backup/videos/tv_shows/heroes/]:DB=[],Computed=[]
  362. 19:39:52 T:2954493952 M:886001664   DEBUG: Not adding item to library as no info was found :(
  363. 19:39:52 T:2954493952 M:886001664   DEBUG: DoScan - Finished dir: /Volumes/backup/videos/tv_shows/heroes/
  364. 19:39:52 T:2954493952 M:886001664   DEBUG: Hash[tvshows,/Volumes/backup/videos/tv_shows/hidden.palms/]:DB=[],Computed=[]
  365. 19:39:52 T:2954493952 M:886001664   DEBUG: Not adding item to library as no info was found :(
  366. 19:39:52 T:2954493952 M:886001664   DEBUG: DoScan - Finished dir: /Volumes/backup/videos/tv_shows/hidden.palms/
  367. 19:39:52 T:2954493952 M:886001664   DEBUG: Hash[tvshows,/Volumes/backup/videos/tv_shows/house/]:DB=[],Computed=[]
  368. 19:39:52 T:2954493952 M:886001664   DEBUG: Not adding item to library as no info was found :(
  369. 19:39:52 T:2954493952 M:886001664   DEBUG: DoScan - Finished dir: /Volumes/backup/videos/tv_shows/house/
  370. 19:39:52 T:2954493952 M:886001664   DEBUG: Hash[tvshows,/Volumes/backup/videos/tv_shows/how.i.met.your.mother/]:DB=[],Computed=[]
  371. 19:39:52 T:2954493952 M:886001664   DEBUG: Not adding item to library as no info was found :(
  372. 19:39:52 T:2954493952 M:886001664   DEBUG: DoScan - Finished dir: /Volumes/backup/videos/tv_shows/how.i.met.your.mother/
  373. 19:39:52 T:2954493952 M:886001664   DEBUG: Hash[tvshows,/Volumes/backup/videos/tv_shows/its.always.sunny.in.philadelphia/]:DB=[],Computed=[]
  374. 19:39:52 T:2954493952 M:885932032   DEBUG: Not adding item to library as no info was found :(
  375. 19:39:52 T:2954493952 M:885932032   DEBUG: DoScan - Finished dir: /Volumes/backup/videos/tv_shows/its.always.sunny.in.philadelphia/
  376. 19:39:52 T:2954493952 M:886001664   DEBUG: Hash[tvshows,/Volumes/backup/videos/tv_shows/jekyll/]:DB=[],Computed=[]
  377. 19:39:52 T:2693854432 M:886001664    INFO: Attempting to default to:
  378. 19:39:52 T:2693854432 M:886001664   DEBUG: CDatabase: Connecting to database MyVideos34.db at /Users/username/Library/Application Support/XBMC/userdata/Database:
  379. 19:39:52 T:2693854432 M:886001664   DEBUG: ------ Window Init (MyVideo.xml) ------
  380. 19:39:52 T:2693854432 M:886001664    INFO: Loading skin file: MyVideo.xml
  381. 19:39:52 T:2954493952 M:886001664   DEBUG: Not adding item to library as no info was found :(
  382. 19:39:52 T:2954493952 M:886001664   DEBUG: DoScan - Finished dir: /Volumes/backup/videos/tv_shows/jekyll/
  383. 19:39:52 T:2954493952 M:885780480   DEBUG: Hash[tvshows,/Volumes/backup/videos/tv_shows/jericho.2006/]:DB=[],Computed=[]
  384. 19:39:52 T:2954493952 M:885567488   DEBUG: Not adding item to library as no info was found :(
  385. 19:39:52 T:2954493952 M:885567488   DEBUG: DoScan - Finished dir: /Volumes/backup/videos/tv_shows/jericho.2006/
  386. 19:39:52 T:2954493952 M:885497856   DEBUG: Hash[tvshows,/Volumes/backup/videos/tv_shows/john.from.cincinnati/]:DB=[],Computed=[]
  387. 19:39:52 T:2954493952 M:885497856   DEBUG: Not adding item to library as no info was found :(
  388. 19:39:52 T:2954493952 M:885497856   DEBUG: DoScan - Finished dir: /Volumes/backup/videos/tv_shows/john.from.cincinnati/
  389. 19:39:52 T:2954493952 M:885497856   DEBUG: Hash[tvshows,/Volumes/backup/videos/tv_shows/jpod/]:DB=[],Computed=[]
  390. 19:39:52 T:2954493952 M:885497856   DEBUG: Not adding item to library as no info was found :(
  391. 19:39:52 T:2954493952 M:885497856   DEBUG: DoScan - Finished dir: /Volumes/backup/videos/tv_shows/jpod/
  392. 19:39:52 T:2954493952 M:885497856   DEBUG: Hash[tvshows,/Volumes/backup/videos/tv_shows/kevin.hill/]:DB=[],Computed=[]
  393. 19:39:52 T:2693854432 M:885497856   ERROR: Window Translator: Can't find window tv
  394. 19:39:52 T:2693854432 M:885497856   ERROR: Error evaluating boolean expression Window.IsVisible(TV) + Control.IsVisible(10)
  395. 19:39:52 T:2954493952 M:885497856   DEBUG: Not adding item to library as no info was found :(
  396. 19:39:52 T:2954493952 M:885497856   DEBUG: DoScan - Finished dir: /Volumes/backup/videos/tv_shows/kevin.hill/
  397. 19:39:52 T:2954493952 M:885489664   DEBUG: Hash[tvshows,/Volumes/backup/videos/tv_shows/las.vegas/]:DB=[],Computed=[]
  398. 19:39:52 T:2693854432 M:885485568   ERROR: Window Translator: Can't find window tv
  399. 19:39:52 T:2693854432 M:885485568   ERROR: Error evaluating boolean expression Window.IsVisible(TV) + [Control.IsVisible(14) | Control.IsVisible(15) | Control.IsVisible(16) | Control.IsVisible(17)]
  400. 19:39:52 T:2693854432 M:885485568   ERROR: Window Translator: Can't find window tv
  401. 19:39:52 T:2693854432 M:885485568   ERROR: Error evaluating boolean expression Window.IsVisible(TV) + [Control.IsVisible(11) | Control.IsVisible(12) | Control.IsVisible(13)] + !Skin.HasSetting(FanartShort)  + !Skin.HasSetting(FanartLong)
  402. 19:39:52 T:2693854432 M:885485568   ERROR: Window Translator: Can't find window tv
  403. 19:39:52 T:2693854432 M:885485568   ERROR: Error evaluating boolean expression Window.IsVisible(TV) + [Control.IsVisible(11) | Control.IsVisible(12) | Control.IsVisible(13)] + Skin.HasSetting(FanartShort)
  404. 19:39:52 T:2693854432 M:885448704   ERROR: Window Translator: Can't find window tv
  405. 19:39:52 T:2693854432 M:885448704   ERROR: Error evaluating boolean expression Window.IsVisible(TV) + [Control.IsVisible(11) | Control.IsVisible(12) | Control.IsVisible(13)] + Skin.HasSetting(FanartLong)
  406. 19:39:52 T:2693854432 M:885485568   ERROR: Error evaluating boolean expression !stringcompare(ListItem.Label,..) + ListItem.IsFolder + !Window.IsVisible(VideoFiles) + !Window.IsVisible(VideoPlaylist) +
  407. 19:39:52 T:2954493952 M:885452800   DEBUG: Not adding item to library as no info was found :(
  408. 19:39:52 T:2954493952 M:885452800   DEBUG: DoScan - Finished dir: /Volumes/backup/videos/tv_shows/las.vegas/
  409. 19:39:52 T:2954493952 M:885235712   DEBUG: Hash[tvshows,/Volumes/backup/videos/tv_shows/lax/]:DB=[],Computed=[]
  410. 19:39:52 T:2954493952 M:884965376   DEBUG: Not adding item to library as no info was found :(
  411. 19:39:52 T:2954493952 M:884965376   DEBUG: DoScan - Finished dir: /Volumes/backup/videos/tv_shows/lax/
  412. 19:39:52 T:2954493952 M:884858880   DEBUG: Hash[tvshows,/Volumes/backup/videos/tv_shows/lie.to.me/]:DB=[],Computed=[]
  413. 19:39:52 T:2693854432 M:884760576   DEBUG: CDatabase: Connecting to database ViewModes at /Users/username/Library/Application Support/XBMC/userdata/Database:
  414. 19:39:52 T:2693854432 M:884752384   DEBUG: Load MyVideo.xml: 338.53ms
  415. 19:39:52 T:2954493952 M:884752384   DEBUG: Not adding item to library as no info was found :(
  416. 19:39:52 T:2954493952 M:884752384   DEBUG: DoScan - Finished dir: /Volumes/backup/videos/tv_shows/lie.to.me/
  417. 19:39:52 T:2954493952 M:884752384   DEBUG: Hash[tvshows,/Volumes/backup/videos/tv_shows/life/]:DB=[],Computed=[]
  418. 19:39:53 T:2954493952 M:884752384   DEBUG: Not adding item to library as no info was found :(
  419. 19:39:53 T:2954493952 M:884752384   DEBUG: DoScan - Finished dir: /Volumes/backup/videos/tv_shows/life/
  420. 19:39:53 T:2954493952 M:884748288   DEBUG: Hash[tvshows,/Volumes/backup/videos/tv_shows/lipstick.jungle/]:DB=[],Computed=[]
  421. 19:39:53 T:2954493952 M:884748288   DEBUG: Not adding item to library as no info was found :(
  422. 19:39:53 T:2954493952 M:884748288   DEBUG: DoScan - Finished dir: /Volumes/backup/videos/tv_shows/lipstick.jungle/
  423. 19:39:53 T:2954493952 M:884748288   DEBUG: Hash[tvshows,/Volumes/backup/videos/tv_shows/lost/]:DB=[],Computed=[]
  424. 19:39:53 T:2693854432 M:884633600   DEBUG: Alloc resources: 530.47ms (338.69 ms skin load)
  425. 19:39:53 T:2693854432 M:884633600   DEBUG: CGUIMediaWindow::GetDirectory ()
  426. 19:39:53 T:2693854432 M:884633600   DEBUG:   ParentPath = []
  427. 19:39:53 T:2693854432 M:884617216 WARNING: CRITSEC[0x3948a9c]: Trying to initialze initialized section.
  428. 19:39:53 T:2954493952 M:884609024   DEBUG: Not adding item to library as no info was found :(
  429. 19:39:53 T:2954493952 M:884609024   DEBUG: DoScan - Finished dir: /Volumes/backup/videos/tv_shows/lost/
  430. 19:39:53 T:2954493952 M:884580352   DEBUG: Hash[tvshows,/Volumes/backup/videos/tv_shows/massive/]:DB=[],Computed=[]
  431. 19:39:53 T:2954493952 M:884543488   DEBUG: Not adding item to library as no info was found :(
  432. 19:39:53 T:2954493952 M:884543488   DEBUG: DoScan - Finished dir: /Volumes/backup/videos/tv_shows/massive/
  433. 19:39:53 T:2954493952 M:884535296   DEBUG: Hash[tvshows,/Volumes/backup/videos/tv_shows/miss.guided/]:DB=[],Computed=[]
  434. 19:39:53 T:2693854432 M:884518912   DEBUG: CDatabase: Connecting to database ViewModes at /Users/username/Library/Application Support/XBMC/userdata/Database:
  435. 19:39:53 T:2693854432 M:884518912   DEBUG: CDatabase: Connecting to database ViewModes at /Users/username/Library/Application Support/XBMC/userdata/Database:
  436. 19:39:53 T:2693854432 M:884518912   DEBUG: CDatabase: Connecting to database ViewModes at /Users/username/Library/Application Support/XBMC/userdata/Database:
  437. 19:39:53 T:2959286272 M:884510720   DEBUG: thread start, auto delete: 0
  438. 19:39:53 T:2959286272 M:884502528   DEBUG: Thread 2959286272 terminating
  439. 19:39:53 T:2954493952 M:884498432   DEBUG: Not adding item to library as no info was found :(
  440. 19:39:53 T:2954493952 M:884498432   DEBUG: DoScan - Finished dir: /Volumes/backup/videos/tv_shows/miss.guided/
  441. 19:39:53 T:2954493952 M:884494336   DEBUG: Hash[tvshows,/Volumes/backup/videos/tv_shows/moonlight/]:DB=[],Computed=[]
  442. 19:39:53 T:2954493952 M:884494336   DEBUG: Not adding item to library as no info was found :(
  443. 19:39:53 T:2954493952 M:884494336   DEBUG: DoScan - Finished dir: /Volumes/backup/videos/tv_shows/moonlight/
  444. 19:39:53 T:2954493952 M:884494336   DEBUG: Hash[tvshows,/Volumes/backup/videos/tv_shows/october.road/]:DB=[],Computed=[]
  445. 19:39:53 T:2954493952 M:884486144   DEBUG: Not adding item to library as no info was found :(
  446. 19:39:53 T:2954493952 M:884486144   DEBUG: DoScan - Finished dir: /Volumes/backup/videos/tv_shows/october.road/
  447. 19:39:53 T:2954493952 M:884486144   DEBUG: Hash[tvshows,/Volumes/backup/videos/tv_shows/point.pleasant/]:DB=[],Computed=[]
  448. 19:39:53 T:2954493952 M:877105152   DEBUG: Not adding item to library as no info was found :(
  449. 19:39:53 T:2954493952 M:877105152   DEBUG: DoScan - Finished dir: /Volumes/backup/videos/tv_shows/point.pleasant/
  450. 19:39:53 T:2954493952 M:877105152   DEBUG: Hash[tvshows,/Volumes/backup/videos/tv_shows/pushing.daisies/]:DB=[],Computed=[]
  451. 19:39:53 T:2954493952 M:872177664   DEBUG: Not adding item to library as no info was found :(
  452. 19:39:53 T:2954493952 M:872144896   DEBUG: DoScan - Finished dir: /Volumes/backup/videos/tv_shows/pushing.daisies/
  453. 19:39:53 T:2954493952 M:870801408   DEBUG: Hash[tvshows,/Volumes/backup/videos/tv_shows/raising.the.bar/]:DB=[],Computed=[]
  454. 19:39:53 T:2954493952 M:870567936   DEBUG: Not adding item to library as no info was found :(
  455. 19:39:53 T:2954493952 M:870567936   DEBUG: DoScan - Finished dir: /Volumes/backup/videos/tv_shows/raising.the.bar/
  456. 19:39:53 T:2954493952 M:870543360   DEBUG: Hash[tvshows,/Volumes/backup/videos/tv_shows/regenesis/]:DB=[],Computed=[]
  457. 19:39:53 T:2954493952 M:870531072   DEBUG: Not adding item to library as no info was found :(
  458. 19:39:53 T:2954493952 M:870531072   DEBUG: DoScan - Finished dir: /Volumes/backup/videos/tv_shows/regenesis/
  459. 19:39:53 T:2954493952 M:870805504   DEBUG: Hash[tvshows,/Volumes/backup/videos/tv_shows/robin.hood/]:DB=[],Computed=[]
  460. 19:39:53 T:2954493952 M:870801408   DEBUG: Not adding item to library as no info was found :(
  461. 19:39:53 T:2954493952 M:870801408   DEBUG: DoScan - Finished dir: /Volumes/backup/videos/tv_shows/robin.hood/
  462. 19:39:53 T:2954493952 M:870776832   DEBUG: Hash[tvshows,/Volumes/backup/videos/tv_shows/rome/]:DB=[],Computed=[]
  463. 19:39:53 T:2954493952 M:870776832   DEBUG: Not adding item to library as no info was found :(
  464. 19:39:53 T:2954493952 M:870776832   DEBUG: DoScan - Finished dir: /Volumes/backup/videos/tv_shows/rome/
  465. 19:39:53 T:2954493952 M:870776832   DEBUG: Hash[tvshows,/Volumes/backup/videos/tv_shows/roommates/]:DB=[],Computed=[]
  466. 19:39:53 T:2954493952 M:870752256   DEBUG: Not adding item to library as no info was found :(
  467. 19:39:53 T:2954493952 M:870752256   DEBUG: DoScan - Finished dir: /Volumes/backup/videos/tv_shows/roommates/
  468. 19:39:53 T:2954493952 M:870752256   DEBUG: Hash[tvshows,/Volumes/backup/videos/tv_shows/rules.of.engagement/]:DB=[],Computed=[]
  469. 19:39:53 T:2954493952 M:868667392   DEBUG: Not adding item to library as no info was found :(
  470. 19:39:53 T:2954493952 M:868667392   DEBUG: DoScan - Finished dir: /Volumes/backup/videos/tv_shows/rules.of.engagement/
  471. 19:39:53 T:2954493952 M:868667392   DEBUG: Hash[tvshows,/Volumes/backup/videos/tv_shows/samantha.who/]:DB=[],Computed=[]
  472. 19:39:53 T:2954493952 M:873431040   DEBUG: Not adding item to library as no info was found :(
  473. 19:39:53 T:2954493952 M:873431040   DEBUG: DoScan - Finished dir: /Volumes/backup/videos/tv_shows/samantha.who/
  474. 19:39:53 T:2954493952 M:873431040   DEBUG: Hash[tvshows,/Volumes/backup/videos/tv_shows/scrubs/]:DB=[],Computed=[]
  475. 19:39:53 T:2954493952 M:873431040   DEBUG: Not adding item to library as no info was found :(
  476. 19:39:53 T:2954493952 M:873431040   DEBUG: DoScan - Finished dir: /Volumes/backup/videos/tv_shows/scrubs/
  477. 19:39:53 T:2954493952 M:873431040   DEBUG: Hash[tvshows,/Volumes/backup/videos/tv_shows/shark/]:DB=[],Computed=[]
  478. 19:39:53 T:2954493952 M:873426944   DEBUG: Not adding item to library as no info was found :(
  479. 19:39:53 T:2954493952 M:873426944   DEBUG: DoScan - Finished dir: /Volumes/backup/videos/tv_shows/shark/
  480. 19:39:53 T:2954493952 M:873426944   DEBUG: Hash[tvshows,/Volumes/backup/videos/tv_shows/six.degrees/]:DB=[],Computed=[]
  481. 19:39:53 T:2954493952 M:873426944   DEBUG: Not adding item to library as no info was found :(
  482. 19:39:53 T:2954493952 M:873426944   DEBUG: DoScan - Finished dir: /Volumes/backup/videos/tv_shows/six.degrees/
  483. 19:39:53 T:2954493952 M:873426944   DEBUG: Hash[tvshows,/Volumes/backup/videos/tv_shows/skins/]:DB=[],Computed=[]
  484. 19:39:54 T:2954493952 M:873426944   DEBUG: Not adding item to library as no info was found :(
  485. 19:39:54 T:2954493952 M:873426944   DEBUG: DoScan - Finished dir: /Volumes/backup/videos/tv_shows/skins/
  486. 19:39:54 T:2954493952 M:873426944   DEBUG: Hash[tvshows,/Volumes/backup/videos/tv_shows/smallville/]:DB=[],Computed=[]
  487. 19:39:54 T:2954493952 M:873426944   DEBUG: GetZipList - Processing zip://%2fVolumes%2fbackup%2fvideos%2ftv%5fshows%2fsmallville%2fs4%2fsmallville%2e406%2esyncfix%2ezip/
  488. 19:39:54 T:2954493952 M:873373696   DEBUG: Not adding item to library as no info was found :(
  489. 19:39:54 T:2954493952 M:873373696   DEBUG: DoScan - Finished dir: /Volumes/backup/videos/tv_shows/smallville/
  490. 19:39:54 T:2954493952 M:873373696   DEBUG: Hash[tvshows,/Volumes/backup/videos/tv_shows/smith/]:DB=[],Computed=[]
  491. 19:39:54 T:2954493952 M:873373696   DEBUG: Not adding item to library as no info was found :(
  492. 19:39:54 T:2954493952 M:873373696   DEBUG: DoScan - Finished dir: /Volumes/backup/videos/tv_shows/smith/
  493. 19:39:54 T:2954493952 M:873373696   DEBUG: Hash[tvshows,/Volumes/backup/videos/tv_shows/standoff/]:DB=[],Computed=[]
  494. 19:39:54 T:2954493952 M:877326336   DEBUG: Not adding item to library as no info was found :(
  495. 19:39:54 T:2954493952 M:877326336   DEBUG: DoScan - Finished dir: /Volumes/backup/videos/tv_shows/standoff/
  496. 19:39:54 T:2954493952 M:877326336   DEBUG: Hash[tvshows,/Volumes/backup/videos/tv_shows/stargate.universe/]:DB=[],Computed=[]
  497. 19:39:54 T:2954493952 M:877326336   DEBUG: Not adding item to library as no info was found :(
  498. 19:39:54 T:2954493952 M:877326336   DEBUG: DoScan - Finished dir: /Volumes/backup/videos/tv_shows/stargate.universe/
  499. 19:39:54 T:2954493952 M:877326336   DEBUG: Hash[tvshows,/Volumes/backup/videos/tv_shows/terminator.the.sarah.connor.chronicles/]:DB=[],Computed=[]
  500. 19:39:54 T:2954493952 M:877326336   DEBUG: Not adding item to library as no info was found :(
  501. 19:39:54 T:2954493952 M:877326336   DEBUG: DoScan - Finished dir: /Volumes/backup/videos/tv_shows/terminator.the.sarah.connor.chronicles/
  502. 19:39:54 T:2954493952 M:877334528   DEBUG: Hash[tvshows,/Volumes/backup/videos/tv_shows/testees/]:DB=[],Computed=[]
  503. 19:39:54 T:2954493952 M:877334528   DEBUG: Not adding item to library as no info was found :(
  504. 19:39:54 T:2954493952 M:877334528   DEBUG: DoScan - Finished dir: /Volumes/backup/videos/tv_shows/testees/
  505. 19:39:54 T:2954493952 M:877334528   DEBUG: Hash[tvshows,/Volumes/backup/videos/tv_shows/the.4400/]:DB=[],Computed=[]
  506. 19:39:54 T:2954493952 M:877334528   DEBUG: Not adding item to library as no info was found :(
  507. 19:39:54 T:2954493952 M:877334528   DEBUG: DoScan - Finished dir: /Volumes/backup/videos/tv_shows/the.4400/
  508. 19:39:54 T:2954493952 M:877334528   DEBUG: Hash[tvshows,/Volumes/backup/videos/tv_shows/the.big.bang.theory/]:DB=[],Computed=[]
  509. 19:39:54 T:2954493952 M:877334528   DEBUG: Not adding item to library as no info was found :(
  510. 19:39:54 T:2954493952 M:877334528   DEBUG: DoScan - Finished dir: /Volumes/backup/videos/tv_shows/the.big.bang.theory/
  511. 19:39:54 T:2954493952 M:877334528   DEBUG: Hash[tvshows,/Volumes/backup/videos/tv_shows/the.chasers/]:DB=[],Computed=[]
  512. 19:39:54 T:2954493952 M:877334528   DEBUG: Not adding item to library as no info was found :(
  513. 19:39:54 T:2954493952 M:877334528   DEBUG: DoScan - Finished dir: /Volumes/backup/videos/tv_shows/the.chasers/
  514. 19:39:54 T:2954493952 M:877309952   DEBUG: Hash[tvshows,/Volumes/backup/videos/tv_shows/the.collector/]:DB=[],Computed=[]
  515. 19:39:54 T:2954493952 M:877309952   DEBUG: Not adding item to library as no info was found :(
  516. 19:39:54 T:2954493952 M:877309952   DEBUG: DoScan - Finished dir: /Volumes/backup/videos/tv_shows/the.collector/
  517. 19:39:54 T:2954493952 M:877309952   DEBUG: Hash[tvshows,/Volumes/backup/videos/tv_shows/the.fixer/]:DB=[],Computed=[]
  518. 19:39:54 T:2954493952 M:877309952   DEBUG: Not adding item to library as no info was found :(
  519. 19:39:54 T:2954493952 M:877309952   DEBUG: DoScan - Finished dir: /Volumes/backup/videos/tv_shows/the.fixer/
  520. 19:39:54 T:2954493952 M:877309952   DEBUG: Hash[tvshows,/Volumes/backup/videos/tv_shows/the.it.crowd/]:DB=[],Computed=[]
  521. 19:39:54 T:2954493952 M:877309952   DEBUG: Not adding item to library as no info was found :(
  522. 19:39:54 T:2954493952 M:877309952   DEBUG: DoScan - Finished dir: /Volumes/backup/videos/tv_shows/the.it.crowd/
  523. 19:39:54 T:2954493952 M:877309952   DEBUG: Hash[tvshows,/Volumes/backup/videos/tv_shows/the.kill.point/]:DB=[],Computed=[]
  524. 19:39:54 T:2954493952 M:877309952   DEBUG: Not adding item to library as no info was found :(
  525. 19:39:54 T:2954493952 M:877309952   DEBUG: DoScan - Finished dir: /Volumes/backup/videos/tv_shows/the.kill.point/
  526. 19:39:54 T:2954493952 M:883900416   DEBUG: Hash[tvshows,/Volumes/backup/videos/tv_shows/the.mentalist/]:DB=[],Computed=[]
  527. 19:39:54 T:2954493952 M:883900416   DEBUG: Not adding item to library as no info was found :(
  528. 19:39:54 T:2954493952 M:883900416   DEBUG: DoScan - Finished dir: /Volumes/backup/videos/tv_shows/the.mentalist/
  529. 19:39:54 T:2954493952 M:883900416   DEBUG: Hash[tvshows,/Volumes/backup/videos/tv_shows/the.oc/]:DB=[],Computed=[]
  530. 19:39:54 T:2954493952 M:883900416   DEBUG: Not adding item to library as no info was found :(
  531. 19:39:54 T:2954493952 M:883900416   DEBUG: DoScan - Finished dir: /Volumes/backup/videos/tv_shows/the.oc/
  532. 19:39:54 T:2954493952 M:883875840   DEBUG: Hash[tvshows,/Volumes/backup/videos/tv_shows/the.office.uk/]:DB=[],Computed=[]
  533. 19:39:54 T:2954493952 M:883875840   DEBUG: Not adding item to library as no info was found :(
  534. 19:39:54 T:2954493952 M:883875840   DEBUG: DoScan - Finished dir: /Volumes/backup/videos/tv_shows/the.office.uk/
  535. 19:39:54 T:2954493952 M:883875840   DEBUG: Hash[tvshows,/Volumes/backup/videos/tv_shows/the.office.us/]:DB=[],Computed=[]
  536. 19:39:55 T:2954493952 M:883875840   DEBUG: Not adding item to library as no info was found :(
  537. 19:39:55 T:2954493952 M:883875840   DEBUG: DoScan - Finished dir: /Volumes/backup/videos/tv_shows/the.office.us/
  538. 19:39:55 T:2954493952 M:883875840   DEBUG: Hash[tvshows,/Volumes/backup/videos/tv_shows/the.unit/]:DB=[],Computed=[]
  539. 19:39:55 T:2954493952 M:883851264   DEBUG: Not adding item to library as no info was found :(
  540. 19:39:55 T:2954493952 M:883851264   DEBUG: DoScan - Finished dir: /Volumes/backup/videos/tv_shows/the.unit/
  541. 19:39:55 T:2954493952 M:883851264   DEBUG: Hash[tvshows,/Volumes/backup/videos/tv_shows/three.sheets/]:DB=[],Computed=[]
  542. 19:39:55 T:2954493952 M:883851264   DEBUG: Not adding item to library as no info was found :(
  543. 19:39:55 T:2954493952 M:883851264   DEBUG: DoScan - Finished dir: /Volumes/backup/videos/tv_shows/three.sheets/
  544. 19:39:55 T:2954493952 M:883851264   DEBUG: Hash[tvshows,/Volumes/backup/videos/tv_shows/tilt/]:DB=[],Computed=[]
  545. 19:39:55 T:2954493952 M:883851264   DEBUG: Not adding item to library as no info was found :(
  546. 19:39:55 T:2954493952 M:883851264   DEBUG: DoScan - Finished dir: /Volumes/backup/videos/tv_shows/tilt/
  547. 19:39:55 T:2954493952 M:883851264   DEBUG: Hash[tvshows,/Volumes/backup/videos/tv_shows/torchwood/]:DB=[],Computed=[]
  548. 19:39:55 T:2954493952 M:883851264   DEBUG: Not adding item to library as no info was found :(
  549. 19:39:55 T:2954493952 M:883851264   DEBUG: DoScan - Finished dir: /Volumes/backup/videos/tv_shows/torchwood/
  550. 19:39:55 T:2954493952 M:883851264   DEBUG: Hash[tvshows,/Volumes/backup/videos/tv_shows/traveler/]:DB=[],Computed=[]
  551. 19:39:55 T:2954493952 M:883851264   DEBUG: Not adding item to library as no info was found :(
  552. 19:39:55 T:2954493952 M:883851264   DEBUG: DoScan - Finished dir: /Volumes/backup/videos/tv_shows/traveler/
  553. 19:39:55 T:2954493952 M:883851264   DEBUG: Hash[tvshows,/Volumes/backup/videos/tv_shows/true.blood/]:DB=[],Computed=[]
  554. 19:39:55 T:2954493952 M:883838976   DEBUG: Not adding item to library as no info was found :(
  555. 19:39:55 T:2954493952 M:883838976   DEBUG: DoScan - Finished dir: /Volumes/backup/videos/tv_shows/true.blood/
  556. 19:39:55 T:2954493952 M:883838976   DEBUG: Hash[tvshows,/Volumes/backup/videos/tv_shows/v.2009/]:DB=[],Computed=[]
  557. 19:39:55 T:2954493952 M:883838976   DEBUG: Not adding item to library as no info was found :(
  558. 19:39:55 T:2954493952 M:883838976   DEBUG: DoScan - Finished dir: /Volumes/backup/videos/tv_shows/v.2009/
  559. 19:39:55 T:2954493952 M:883814400   DEBUG: Hash[tvshows,/Volumes/backup/videos/tv_shows/warehouse.13/]:DB=[],Computed=[]
  560. 19:39:55 T:2954493952 M:883814400   DEBUG: Not adding item to library as no info was found :(
  561. 19:39:55 T:2954493952 M:883814400   DEBUG: DoScan - Finished dir: /Volumes/backup/videos/tv_shows/warehouse.13/
  562. 19:39:55 T:2954493952 M:883802112   DEBUG: Hash[tvshows,/Volumes/backup/videos/tv_shows/weeds/]:DB=[],Computed=[]
  563. 19:39:55 T:2954493952 M:883802112   DEBUG: Not adding item to library as no info was found :(
  564. 19:39:55 T:2954493952 M:883802112   DEBUG: DoScan - Finished dir: /Volumes/backup/videos/tv_shows/weeds/
  565. 19:39:55 T:2954493952 M:883777536   DEBUG: Hash[tvshows,/Volumes/backup/videos/tv_shows/what.about.brian/]:DB=[],Computed=[]
  566. 19:39:55 T:2954493952 M:883777536   DEBUG: Not adding item to library as no info was found :(
  567. 19:39:55 T:2954493952 M:883777536   DEBUG: DoScan - Finished dir: /Volumes/backup/videos/tv_shows/what.about.brian/
  568. 19:39:55 T:2954493952 M:883777536   DEBUG: Hash[tvshows,/Volumes/backup/videos/tv_specials/]:DB=[93A89D39367974FB0C8B181BCB1AFCE2],Computed=[93A89D39367974FB0C8B181BCB1AFCE2]
  569. 19:39:55 T:2954493952 M:883777536   DEBUG: DoScan - Finished dir: /Volumes/backup/videos/tv_specials/
  570. 19:39:55 T:2954493952 M:883777536   DEBUG: Hash[tvshows,/Volumes/backup/videos/tv_specials/fallen/]:DB=[],Computed=[]
  571. 19:39:55 T:2954493952 M:883777536   DEBUG: Not adding item to library as no info was found :(
  572. 19:39:55 T:2954493952 M:883777536   DEBUG: DoScan - Finished dir: /Volumes/backup/videos/tv_specials/fallen/
  573. 19:39:55 T:2954493952 M:883777536   DEBUG: Hash[tvshows,/Volumes/backup/videos/tv_specials/oliver.twist/]:DB=[],Computed=[]
  574. 19:39:55 T:2954493952 M:883752960   DEBUG: Not adding item to library as no info was found :(
  575. 19:39:55 T:2954493952 M:883752960   DEBUG: DoScan - Finished dir: /Volumes/backup/videos/tv_specials/oliver.twist/
  576. 19:39:55 T:2954493952 M:883752960   DEBUG: Hash[tvshows,/Volumes/backup/videos/tv_specials/south.pacific/]:DB=[],Computed=[]
  577. 19:39:55 T:2954493952 M:883752960   DEBUG: Not adding item to library as no info was found :(
  578. 19:39:55 T:2954493952 M:883752960   DEBUG: DoScan - Finished dir: /Volumes/backup/videos/tv_specials/south.pacific/
  579. 19:39:55 T:2954493952 M:883752960   DEBUG: Hash[tvshows,/Volumes/backup/videos/tv_specials/terry.pratchetts.hogfather/]:DB=[],Computed=[]
  580. 19:39:55 T:2954493952 M:883752960   DEBUG: Not adding item to library as no info was found :(
  581. 19:39:55 T:2954493952 M:883752960   DEBUG: DoScan - Finished dir: /Volumes/backup/videos/tv_specials/terry.pratchetts.hogfather/
  582. 19:39:55 T:2954493952 M:883752960   DEBUG: Hash[tvshows,/Volumes/backup/videos/tv_specials/the.andromeda.strain.2008/]:DB=[],Computed=[]
  583. 19:39:55 T:2954493952 M:883752960   DEBUG: Not adding item to library as no info was found :(
  584. 19:39:55 T:2954493952 M:883752960   DEBUG: DoScan - Finished dir: /Volumes/backup/videos/tv_specials/the.andromeda.strain.2008/
  585. 19:39:55 T:2954493952 M:883728384   DEBUG: Hash[tvshows,/Volumes/backup/videos/tv_specials/the.lost.room/]:DB=[],Computed=[]
  586. 19:39:55 T:2954493952 M:883740672   DEBUG: Not adding item to library as no info was found :(
  587. 19:39:55 T:2954493952 M:883740672   DEBUG: DoScan - Finished dir: /Volumes/backup/videos/tv_specials/the.lost.room/
  588. 19:39:55 T:2954493952 M:883740672   DEBUG: Hash[tvshows,/Volumes/backup/videos/tv_specials/tin.man/]:DB=[],Computed=[]
  589. 19:39:55 T:2954493952 M:883740672   DEBUG: Not adding item to library as no info was found :(
  590. 19:39:55 T:2954493952 M:883740672   DEBUG: DoScan - Finished dir: /Volumes/backup/videos/tv_specials/tin.man/
  591. 19:39:55 T:2954493952 M:883748864   DEBUG: Process - Finished scan
  592. 19:39:55 T:2954493952 M:883748864  NOTICE: My Videos: Scanning for video info using worker thread, operation took 00:05
  593. 19:39:55 T:2954493952 M:883748864    INFO: Video scan was stopped or finished ... restoring FindRemoteThumbs
  594. 19:39:55 T:2954493952 M:883748864   DEBUG: Thread 2954493952 terminating
  595. 19:39:56 T:2693854432 M:883662848   DEBUG: ------ Window Deinit (DialogVideoScan.xml) ------
  596. 19:39:56 T:2693854432 M:884760576   DEBUG: SDLKeyboard: scancode: 125, sym: 274, unicode: 63233, modifier: 0
  597. 19:39:56 T:2693854432 M:884760576   DEBUG: OnKey: 61480 pressed, action is Down
  598. 19:39:57 T:2693854432 M:884457472   DEBUG: SDLKeyboard: scancode: 125, sym: 274, unicode: 63233, modifier: 0
  599. 19:39:57 T:2693854432 M:884457472   DEBUG: OnKey: 61480 pressed, action is Down
  600. 19:39:57 T:2693854432 M:884420608   DEBUG: SDLKeyboard: scancode: 36, sym: 13, unicode: 13, modifier: 0
  601. 19:39:57 T:2693854432 M:884420608   DEBUG: OnKey: 61453 pressed, action is Select
  602. 19:39:57 T:2693854432 M:884420608   DEBUG: CGUIMediaWindow::GetDirectory (/Users/username/Movies/)
  603. 19:39:57 T:2693854432 M:884420608   DEBUG:   ParentPath = []
  604. 19:39:57 T:2693854432 M:884420608 WARNING: CRITSEC[0xbfffe524]: Trying to initialze initialized section.
  605. 19:39:58 T:2693854432 M:884408320 WARNING: CRITSEC[0x3948a9c]: Trying to initialze initialized section.
  606. 19:39:58 T:2693854432 M:884408320   DEBUG: CDatabase: Connecting to database ViewModes at /Users/username/Library/Application Support/XBMC/userdata/Database:
  607. 19:39:58 T:2693854432 M:884408320   DEBUG: CDatabase: Connecting to database ViewModes at /Users/username/Library/Application Support/XBMC/userdata/Database:
  608. 19:39:58 T:2693854432 M:884408320   DEBUG: CDatabase: Connecting to database ViewModes at /Users/username/Library/Application Support/XBMC/userdata/Database:
  609. 19:39:58 T:2959286272 M:884416512   DEBUG: thread start, auto delete: 0
  610. 19:39:58 T:2959286272 M:884416512   DEBUG: CDatabase: Connecting to database MyVideos34.db at /Users/username/Library/Application Support/XBMC/userdata/Database:
  611. 19:39:58 T:2959286272 M:884404224   DEBUG: Thread 2959286272 terminating
  612. 19:39:59 T:2693854432 M:882888704   DEBUG: SDLKeyboard: scancode: 125, sym: 274, unicode: 63233, modifier: 0
  613. 19:39:59 T:2693854432 M:882888704   DEBUG: OnKey: 61480 pressed, action is Down
  614. 19:40:00 T:2693854432 M:882253824   DEBUG: SDLKeyboard: scancode: 36, sym: 13, unicode: 13, modifier: 0
  615. 19:40:00 T:2693854432 M:882253824   DEBUG: OnKey: 61453 pressed, action is Select
  616. 19:40:00 T:2693854432 M:882253824   DEBUG: CDatabase: Connecting to database MyVideos34.db at /Users/username/Library/Application Support/XBMC/userdata/Database:
  617. 19:40:00 T:2693854432 M:882253824    INFO: Loading skin file: DialogContextMenu.xml
  618. 19:40:00 T:2693854432 M:882249728   DEBUG: Load DialogContextMenu.xml: 5.07ms
  619. 19:40:00 T:2693854432 M:882249728   DEBUG: ------ Window Init (DialogContextMenu.xml) ------
  620. 19:40:00 T:2693854432 M:882249728   DEBUG: Alloc resources: 0.11ms (0.01 ms skin load)
  621. 19:40:01 T:2693854432 M:880566272   DEBUG: SDLKeyboard: scancode: 125, sym: 274, unicode: 63233, modifier: 0
  622. 19:40:01 T:2693854432 M:880566272   DEBUG: OnKey: 61480 pressed, action is Down
  623. 19:40:02 T:2693854432 M:880578560    INFO: Python, unloading python24.dll because no scripts are running anymore
  624. 19:40:02 T:2693854432 M:880578560   DEBUG: UnloadExtensionLibs, clearing python extension libraries
  625. 19:40:02 T:2693854432 M:880578560   DEBUG: Unloading: python24-x86-osx.so
  626. 19:40:02 T:2693854432 M:880746496   DEBUG: SDLKeyboard: scancode: 36, sym: 13, unicode: 13, modifier: 0
  627. 19:40:02 T:2693854432 M:880746496   DEBUG: OnKey: 61453 pressed, action is Select
  628. 19:40:03 T:2693854432 M:880771072   DEBUG: ------ Window Deinit (DialogContextMenu.xml) ------
  629. 19:40:03 T:2693854432 M:882671616   DEBUG: new file set audiostream:0
  630. 19:40:03 T:2693854432 M:882671616   DEBUG: CDatabase: Connecting to database MyVideos34.db at /Users/username/Library/Application Support/XBMC/userdata/Database:
  631. 19:40:03 T:2693854432 M:882671616   DEBUG: CPlayerCoreFactory::GetPlayers(/Users/username/Movies/King Arthur.mkv)
  632. 19:40:03 T:2693854432 M:882671616   DEBUG: CPlayerSelectionRule::GetPlayers: considering rule: system rules
  633. 19:40:03 T:2693854432 M:882671616   DEBUG: CPlayerSelectionRule::GetPlayers: matches rule: system rules
  634. 19:40:03 T:2693854432 M:882671616   DEBUG: CPlayerSelectionRule::GetPlayers: considering rule: rtv
  635. 19:40:03 T:2693854432 M:882671616   DEBUG: CPlayerSelectionRule::GetPlayers: considering rule: hdhomerun/myth/rtmp/mms/udp
  636. 19:40:03 T:2693854432 M:882671616   DEBUG: CPlayerSelectionRule::GetPlayers: considering rule: lastfm/shout
  637. 19:40:03 T:2693854432 M:882671616   DEBUG: CPlayerSelectionRule::GetPlayers: considering rule: rtsp
  638. 19:40:03 T:2693854432 M:882671616   DEBUG: CPlayerSelectionRule::GetPlayers: considering rule: streams
  639. 19:40:03 T:2693854432 M:882671616   DEBUG: CPlayerSelectionRule::GetPlayers: considering rule: dvd
  640. 19:40:03 T:2693854432 M:882671616   DEBUG: CPlayerSelectionRule::GetPlayers: considering rule: dvdfile
  641. 19:40:03 T:2693854432 M:882671616   DEBUG: CPlayerSelectionRule::GetPlayers: considering rule: dvdimage
  642. 19:40:03 T:2693854432 M:882671616   DEBUG: CPlayerSelectionRule::GetPlayers: considering rule: sdp/asf
  643. 19:40:03 T:2693854432 M:882671616   DEBUG: CPlayerSelectionRule::GetPlayers: considering rule: nsv
  644. 19:40:03 T:2693854432 M:882671616   DEBUG: CPlayerCoreFactory::GetPlayers: matched 0 rules with players
  645. 19:40:03 T:2693854432 M:882671616   DEBUG: CPlayerCoreFactory::GetPlayers: adding videodefaultplayer (1)
  646. 19:40:03 T:2693854432 M:882671616   DEBUG: CPlayerCoreFactory::GetPlayers: for video=1, audio=0
  647. 19:40:03 T:2693854432 M:882671616   DEBUG: CPlayerCoreFactory::GetPlayers: for video=1, audio=1
  648. 19:40:03 T:2693854432 M:882671616   DEBUG: CPlayerCoreFactory::GetPlayers: adding player: DVDPlayer (1)
  649. 19:40:03 T:2693854432 M:882671616   DEBUG: CPlayerCoreFactory::GetPlayers: added 1 players
  650. 19:40:03 T:2693854432 M:881430528  NOTICE: DVDPlayer: Opening: /Users/username/Movies/King Arthur.mkv
  651. 19:40:03 T:2693854432 M:881430528 WARNING: CDVDMessageQueue(player)::Put MSGQ_NOT_INITIALIZED
  652. 19:40:03 T:2953850880 M:881422336   DEBUG: thread start, auto delete: 0
  653. 19:40:03 T:2953850880 M:881422336  NOTICE: Creating InputStream
  654. 19:40:03 T:2953850880 M:881405952    INFO: CDVDFactorySubtitle::GetSubtitles, searching subtitles
  655. 19:40:03 T:2953850880 M:881405952   DEBUG: CacheSubtitles: START
  656. 19:40:03 T:2953850880 M:881405952   DEBUG: CacheSubtitles: Checking for common subdirs...
  657. 19:40:03 T:2953850880 M:881405952   DEBUG: CacheSubtitles: Done (time: 1 ms)
  658. 19:40:03 T:2953850880 M:881405952   DEBUG: CacheSubtitles: Searching for subtitles...
  659. 19:40:03 T:2953850880 M:881405952   DEBUG: CacheSubtitles: Done (time: 1 ms)
  660. 19:40:03 T:2953850880 M:881405952   DEBUG: CacheSubtitles: END (total time: 3 ms)
  661. 19:40:03 T:2953850880 M:881405952    INFO: CDVDFactorySubtitle::GetSubtitles, searching subtitles done
  662. 19:40:03 T:2953850880 M:881405952  NOTICE: Creating Demuxer
  663. 19:40:03 T:2953850880 M:881401856   DEBUG: SECTION:LoadDLL(special://xbmc/system/players/dvdplayer/avutil-50-x86-osx.so)
  664. 19:40:03 T:2953850880 M:881401856   DEBUG: Loading: /Applications/XBMC.app/Contents/Resources/XBMC/system/players/dvdplayer/avutil-50-x86-osx.so
  665. 19:40:03 T:2953850880 M:881385472   DEBUG: SECTION:LoadDLL(special://xbmc/system/players/dvdplayer/avcodec-52-x86-osx.so)
  666. 19:40:03 T:2953850880 M:881385472   DEBUG: Loading: /Applications/XBMC.app/Contents/Resources/XBMC/system/players/dvdplayer/avcodec-52-x86-osx.so
  667. 19:40:03 T:2953850880 M:880967680   DEBUG: SECTION:LoadDLL(special://xbmc/system/players/dvdplayer/avformat-52-x86-osx.so)
  668. 19:40:03 T:2953850880 M:880967680   DEBUG: Loading: /Applications/XBMC.app/Contents/Resources/XBMC/system/players/dvdplayer/avformat-52-x86-osx.so
  669. 19:40:03 T:2953850880 M:880906240   DEBUG: Open - probing detected format [matroska]
  670. 19:40:03 T:2953850880 M:880898048   DEBUG: Open - av_find_stream_info starting
  671. 19:40:03 T:2693854432 M:878374912   DEBUG: ------ Window Init (DialogBusy.xml) ------
  672. 19:40:03 T:2693854432 M:878366720    INFO: Loading skin file: DialogBusy.xml
  673. 19:40:03 T:2693854432 M:877572096   DEBUG: Load DialogBusy.xml: 5.06ms
  674. 19:40:03 T:2693854432 M:877572096   DEBUG: Alloc resources: 5.27ms (5.26 ms skin load)
  675. 19:40:03 T:2953850880 M:871215104   DEBUG: ffmpeg[B0103000]: [matroska] MAX_READ_SIZE:5000000 reached
  676. 19:40:03 T:2953850880 M:874418176   DEBUG: ffmpeg[B0103000]: [matroska] Estimating duration from bitrate, this may be inaccurate
  677. 19:40:03 T:2953850880 M:874586112   DEBUG: Open - av_find_stream_info finished
  678. 19:40:03 T:2953850880 M:874586112    INFO: ffmpeg[B0103000]: Input #0, matroska, from '/Users/username/Movies/King Arthur.mkv':
  679. 19:40:03 T:2953850880 M:874586112    INFO: ffmpeg[B0103000]:   Duration: 02:21:38.49, start: 0.000000, bitrate: 4608 kb/s
  680. 19:40:03 T:2953850880 M:874586112    INFO: ffmpeg[B0103000]:     Stream #0.0(eng): Video: h264, yuv420p, 1920x1080 [PAR 1:1 DAR 16:9], 23.98 fps, 23.98 tbr, 1k tbn, 47.95 tbc
  681. 19:40:03 T:2953850880 M:874586112    INFO: ffmpeg[B0103000]:     Stream #0.1(eng): Audio: ac3, 48000 Hz, 6 channels, s16
  682. 19:40:03 T:2953850880 M:874586112    INFO: ffmpeg[B0103000]:     Metadata:
  683. 19:40:03 T:2953850880 M:874586112    INFO: ffmpeg[B0103000]:       description     : 3/2+1
  684. 19:40:03 T:2953850880 M:874586112    INFO: ffmpeg[B0103000]:     Stream #0.2(eng): Audio: pcm_s16le, 48000 Hz, 5.1, s16, 4608 kb/s
  685. 19:40:03 T:2953850880 M:874586112    INFO: ffmpeg[B0103000]:     Metadata:
  686. 19:40:03 T:2953850880 M:874586112    INFO: ffmpeg[B0103000]:       description     : 3/2+1
  687. 19:40:03 T:2953850880 M:874586112    INFO: ffmpeg[B0103000]:     Stream #0.3(eng): Subtitle: pgssub
  688. 19:40:03 T:2953850880 M:874586112  NOTICE: Opening video stream: 0 source: 256
  689. 19:40:03 T:2953850880 M:874586112  NOTICE: Creating video codec with codec id: 28
  690. 19:40:03 T:2953850880 M:874586112    INFO: Trying Broadcom Crystal HD Decoder...
  691. 19:40:03 T:2953850880 M:874586112   DEBUG: FactoryCodec - Video:  - Opening
  692. 19:40:03 T:2959818752 M:874651648   DEBUG: thread start, auto delete: 0
  693. 19:40:03 T:2953850880 M:874651648   DEBUG: CrystalHD: codec opened
  694. 19:40:03 T:2960781312 M:874651648   DEBUG: thread start, auto delete: 0
  695. 19:40:03 T:2959818752 M:874651648   DEBUG: CrystalHD: Input Thread Started...
  696. 19:40:03 T:2953850880 M:874651648    INFO: DVDVideoCodecCrystalHD: Opened Broadcom Crystal HD Codec
  697. 19:40:03 T:2960781312 M:874651648   DEBUG: CrystalHD: Output Thread Started...
  698. 19:40:03 T:2953850880 M:874651648   DEBUG: FactoryCodec - Video: bcm-h264 - Opened
  699. 19:40:03 T:2953850880 M:874651648  NOTICE: Creating video thread
  700. 19:40:03 T:2953850880 M:874643456  NOTICE: Opening audio stream: 1 source: 256
  701. 19:40:03 T:2961313792 M:874643456   DEBUG: thread start, auto delete: 0
  702. 19:40:03 T:2953850880 M:874643456  NOTICE: Finding audio codec for: 86020
  703. 19:40:03 T:2961313792 M:874627072   DEBUG: LinuxRendererGL: Cleaning up GL resources
  704. 19:40:03 T:2953850880 M:874627072   DEBUG: FactoryCodec - Audio: PassthroughFFmpeg - Opening
  705. 19:40:03 T:2953850880 M:874627072   DEBUG: FactoryCodec - Audio: PassthroughFFmpeg - Failed
  706. 19:40:03 T:2961313792 M:874627072   DEBUG: SECTION:LoadDLL(special://xbmc/system/players/dvdplayer/swscale-0.6.1-x86-osx.so)
  707. 19:40:03 T:2961313792 M:874848256   DEBUG: Loading: /Applications/XBMC.app/Contents/Resources/XBMC/system/players/dvdplayer/swscale-0.6.1-x86-osx.so
  708. 19:40:03 T:2953850880 M:874680320   DEBUG: FactoryCodec - Audio: FFmpeg - Opening
  709. 19:40:03 T:2961313792 M:874569728  NOTICE: running thread: video_thread
  710. 19:40:03 T:2953850880 M:874569728   DEBUG: FactoryCodec - Audio: FFmpeg - Opened
  711. 19:40:03 T:2953850880 M:874569728  NOTICE: Creating audio thread
  712. 19:40:03 T:2953850880 M:874565632  NOTICE: Opening Subtitle stream: 3 source: 256
  713. 19:40:03 T:2953850880 M:874565632   DEBUG: FactoryCodec - Overlay: FFmpeg Subtitle Decoder - Opening
  714. 19:40:03 T:2961846272 M:874557440   DEBUG: thread start, auto delete: 0
  715. 19:40:03 T:2961846272 M:874557440  NOTICE: running thread: CDVDPlayerAudio::Process()
  716. 19:40:03 T:2953850880 M:874557440   DEBUG: FactoryCodec - Overlay: FFmpeg Subtitle Decoder - Opened
  717. 19:40:03 T:2953850880 M:874557440   DEBUG: ReadEditDecisionLists - Adjusting detected frame rate by half assuming 1080i (interlaced): 23.976
  718. 19:40:03 T:2953850880 M:874557440   DEBUG: ReadEditDecisionLists - Checking for edit decision lists (EDL) on local drive or remote share for: /Users/username/Movies/King Arthur.mkv
  719. 19:40:03 T:2953850880 M:874557440   DEBUG: CDVDPlayer::SetCaching - caching state 2
  720. 19:40:03 T:2961846272 M:874557440  NOTICE: Creating audio device with codec id: 86020, channels: 2, sample rate: 48000, no pass-through
  721. 19:40:03 T:2961846272 M:874557440    INFO: AudioRendererFactory:  not a explicit device, trying to autodetect.
  722. 19:40:03 T:2961313792 M:874553344   DEBUG: CDVDPlayerVideo - CDVDMsg::GENERAL_SYNCHRONIZE
  723. 19:40:03 T:2693854432 M:874520576   DEBUG: CAnnouncementManager - Announcement: PlaybackStarted from xbmc
  724. 19:40:03 T:2693854432 M:874520576   DEBUG: OnPlayBackStarted - Playback has started
  725. 19:40:03 T:2961313792 M:874508288   DEBUG: CDVDPlayerVideo - CDVDMsg::GENERAL_RESYNC(41000.000000, 0)
  726. 19:40:03 T:2693854432 M:874496000   DEBUG: CGUIInfoManager::SetCurrentMovie(/Users/username/Movies/King Arthur.mkv)
  727. 19:40:03 T:2693854432 M:874496000   DEBUG: CDatabase: Connecting to database MyVideos34.db at /Users/username/Library/Application Support/XBMC/userdata/Database:
  728. 19:40:03 T:2693854432 M:874496000   DEBUG: GetMovieId (/Users/username/Movies/King Arthur.mkv), query = select idMovie from movie where idFile=3156
  729. 19:40:03 T:2693854432 M:874496000   DEBUG: GetEpisodeId (/Users/username/Movies/King Arthur.mkv), query = select idEpisode from episode where idFile=3156
  730. 19:40:03 T:2693854432 M:874496000   DEBUG: GetMusicVideoId (/Users/username/Movies/King Arthur.mkv), query = select idMVideo from musicvideo where idFile=3156
  731. 19:40:03 T:2961846272 M:874250240   DEBUG: SetActiveDevice - SetActiveDevice from 1 to 2
  732. 19:40:03 T:2961846272 M:874250240   DEBUG: RemoveActiveDevice - Removing device 1
  733. 19:40:03 T:2961846272 M:874250240   DEBUG: CCoreAudioHardware::FindAudioDevice: Searching for device - Default.
  734. 19:40:03 T:2961846272 M:874250240   DEBUG: CCoreAudioDevice::GetTotalOutputChannels: Found 0 channels in 0 buffers
  735. 19:40:03 T:2961846272 M:874250240   DEBUG: CCoreAudioHardware::FindAudioDevice:   Device[0x010a] - Name: 'iSight', Total Ouput Channels: 0.
  736. 19:40:03 T:2961846272 M:874250240   DEBUG: CCoreAudioDevice::Close: Closed device 0x010a
  737. 19:40:03 T:2961846272 M:874250240   DEBUG: CCoreAudioDevice::GetTotalOutputChannels: Found 0 channels in 0 buffers
  738. 19:40:03 T:2961846272 M:874250240   DEBUG: CCoreAudioHardware::FindAudioDevice:   Device[0x0104] - Name: 'Built-in Input', Total Ouput Channels: 0.
  739. 19:40:03 T:2961846272 M:874250240   DEBUG: CCoreAudioDevice::Close: Closed device 0x0104
  740. 19:40:03 T:2961846272 M:874250240   DEBUG: CCoreAudioDevice::GetTotalOutputChannels: Found 2 channels in 1 buffers
  741. 19:40:03 T:2961846272 M:874250240   DEBUG: CCoreAudioHardware::FindAudioDevice:   Device[0x0106] - Name: 'Built-in Output', Total Ouput Channels: 2.
  742. 19:40:03 T:2961846272 M:874250240   DEBUG: CCoreAudioDevice::Close: Closed device 0x0106
  743. 19:40:03 T:2961846272 M:874250240   DEBUG: CCoreAudioDevice::GetTotalOutputChannels: Found 2 channels in 1 buffers
  744. 19:40:03 T:2961846272 M:874250240   DEBUG: CCoreAudioHardware::FindAudioDevice:   Device[0x0102] - Name: 'SoundSticks', Total Ouput Channels: 2.
  745. 19:40:03 T:2961846272 M:874250240   DEBUG: CCoreAudioDevice::Close: Closed device 0x0102
  746. 19:40:03 T:2961846272 M:874250240 WARNING: CoreAudioRenderer::Initialize: Unable to locate configured device, falling-back to the system default.
  747. 19:40:03 T:2960781312 M:874360832   DEBUG: CrystalHD: Format Change Detected. Flags: 0x00030000
  748. 19:40:03 T:2960781312 M:874360832   DEBUG: ----------------------------------
  749. 19:40:03 T:2960781312 M:874360832   DEBUG:      TimeStamp: 14064741636278059008
  750. 19:40:03 T:2960781312 M:874360832   DEBUG:      Picture Number: 0
  751. 19:40:03 T:2960781312 M:874360832   DEBUG:      Width: 1920
  752. 19:40:03 T:2960781312 M:874360832   DEBUG:      Height: 1080
  753. 19:40:03 T:2960781312 M:874360832   DEBUG:      Chroma: 0x420
  754. 19:40:03 T:2960781312 M:874360832   DEBUG:      Pulldown: 9
  755. 19:40:03 T:2960781312 M:874360832   DEBUG:      Flags: 0x00040000
  756. 19:40:03 T:2960781312 M:874360832   DEBUG:      Frame Rate/Res: 14
  757. 19:40:03 T:2960781312 M:874360832   DEBUG:      Aspect Ratio: 1
  758. 19:40:03 T:2960781312 M:874360832   DEBUG:      Color Primaries: 2
  759. 19:40:03 T:2960781312 M:874360832   DEBUG:      MetaData: 655616
  760. 19:40:03 T:2960781312 M:874360832   DEBUG:      Session Number: 0
  761. 19:40:03 T:2960781312 M:874360832   DEBUG:      TimeStamp: 0
  762. 19:40:03 T:2960781312 M:874360832   DEBUG:      Custom Aspect: 0
  763. 19:40:03 T:2960781312 M:874360832   DEBUG:      Frames to Drop: 0
  764. 19:40:03 T:2960781312 M:874360832   DEBUG:      H264 Valid Fields: 0x00000000
  765. 19:40:03 T:2960781312 M:874360832   DEBUG: CrystalHD: dec_par x = 1, dec_par y = 1
  766. 19:40:03 T:2960781312 M:874360832   DEBUG: CrystalHD: resolution = e  interlace = 0
  767. 19:40:03 T:2960781312 M:874254336   DEBUG: CrystalHD: No timestamp detected: 0
  768. 19:40:03 T:2693854432 M:874233856   DEBUG: ------ Window Deinit (DialogBusy.xml) ------
  769. 19:40:03 T:2960781312 M:874213376   DEBUG: CrystalHD: Added a new Buffer, ReadyListCount: 0
  770. 19:40:03 T:2960781312 M:873107456   DEBUG: CrystalHD: Added a new Buffer, ReadyListCount: 1
  771. 19:40:03 T:2960781312 M:869908480   DEBUG: CrystalHD: Added a new Buffer, ReadyListCount: 2
  772. 19:40:03 T:2960781312 M:866721792   DEBUG: CrystalHD: Added a new Buffer, ReadyListCount: 3
  773. 19:40:03 T:2960781312 M:863481856   DEBUG: CrystalHD: Added a new Buffer, ReadyListCount: 4
  774. 19:40:03 T:2961313792 M:860282880  NOTICE:  fps: 23.976025, pwidth: 1920, pheight: 1080, dwidth: 1920, dheight: 1080
  775. 19:40:03 T:2961313792 M:860282880   DEBUG: OutputPicture - change configuration. 1920x1080. framerate: 23.98
  776. 19:40:03 T:2961313792 M:860282880  NOTICE: Display resolution DESKTOP : 1680x1050 @ 60.00 - Full Screen (12)
  777. 19:40:03 T:2953850880 M:860282880   DEBUG: CDVDPlayer::HandleMessages - player started 2
  778. 19:40:03 T:2693854432 M:860250112   DEBUG: Activating window ID: 12005
  779. 19:40:04 T:2693854432 M:860250112   DEBUG: Checking if window ID 12005 is locked.
  780. 19:40:04 T:2693854432 M:860241920   DEBUG: ------ Window Deinit (MyVideo.xml) ------
  781. 19:40:04 T:2693854432 M:860225536   DEBUG: ------ Window Init (VideoFullScreen.xml) ------
  782. 19:40:04 T:2693854432 M:860225536    INFO: Loading skin file: VideoFullScreen.xml
  783. 19:40:04 T:2960781312 M:860176384   DEBUG: CrystalHD: Added a new Buffer, ReadyListCount: 4
  784. 19:40:04 T:2693854432 M:857055232   DEBUG: Load VideoFullScreen.xml: 14.56ms
  785. 19:40:04 T:2693854432 M:857055232   DEBUG: Alloc resources: 14.72ms (14.71 ms skin load)
  786. 19:40:04 T:2693854432 M:857055232    INFO: Loading skin file: VideoOSD.xml
  787. 19:40:04 T:2693854432 M:857047040   DEBUG: Error: Requested setting (pvrplayback.timeshift) was not found.  It must be case-sensitive
  788. 19:40:04 T:2960781312 M:857079808   DEBUG: CrystalHD: Added a new Buffer, ReadyListCount: 5
  789. 19:40:04 T:2693854432 M:856453120   DEBUG: Load VideoOSD.xml: 33.35ms
  790. 19:40:04 T:2960781312 M:851193856   DEBUG: CrystalHD: Added a new Buffer, ReadyListCount: 6
  791. 19:40:04 T:2960781312 M:846163968   DEBUG: CrystalHD: Added a new Buffer, ReadyListCount: 7
  792. 19:40:04 T:2960781312 M:842412032   DEBUG: CrystalHD: Added a new Buffer, ReadyListCount: 8
  793. 19:40:04 T:2960781312 M:839286784   DEBUG: CrystalHD: Added a new Buffer, ReadyListCount: 9
  794. 19:40:04 T:2961846272 M:836177920   DEBUG: CoreAudioRenderer::Initialize: Input Stream Format [lpcm] Mixable 2 Channel 16-bit Signed Integer (48000Hz)
  795. 19:40:04 T:2961846272 M:836177920   DEBUG: CoreAudioRenderer::Initialize: Output Stream Format [lpcm] Mixable 2 Channel 32-bit Floating Point (48000Hz)
  796. 19:40:04 T:2961846272 M:836177920   DEBUG: CoreAudioRenderer::Initialize: Renderer Configuration - Chunk Len: 2048, Max Cache: 192000 (1000ms).
  797. 19:40:04 T:2961846272 M:836177920    INFO: CoreAudioRenderer::Initialize: Successfully configured audio output.
  798. 19:40:04 T:2961846272 M:836177920   DEBUG: CDVDPlayerAudio:: synctype set to 0: clock feedback
  799. 19:40:04 T:2961846272 M:836177920   DEBUG: CoreAudioRenderer::Resume: Resuming Playback.
  800. 19:40:04 T:2960781312 M:836145152   DEBUG: CrystalHD: Added a new Buffer, ReadyListCount: 10
  801. 19:40:04 T:2953850880 M:833032192   DEBUG: CDVDPlayer::HandleMessages - player started 1
  802. 19:40:04 T:2953850880 M:833032192   DEBUG: CDVDPlayer::SetCaching - caching state 3
  803. 19:40:04 T:2953850880 M:833032192   DEBUG: CDVDPlayer::SetCaching - caching state 0
  804. 19:40:04 T:2961846272 M:833032192   DEBUG: CDVDPlayerAudio - CDVDMsg::GENERAL_RESYNC(32000.000000, 1)
  805. 19:40:04 T:2961846272 M:833032192   DEBUG: CDVDPlayerAudio:: Discontinuity - was:407.563000, should be:0.000000, error:-407.563000
  806. 19:40:04 T:2960781312 M:833019904   DEBUG: CrystalHD: Added a new Buffer, ReadyListCount: 10
  807. 19:40:04 T:2693854432 M:829911040   DEBUG: Alloc resources: 274.33ms (0.02 ms skin load)
  808. 19:40:04 T:2693854432 M:829911040    INFO: Loading skin file: VideoOSDSettings.xml
  809. 19:40:04 T:2693854432 M:829911040   DEBUG: Load VideoOSDSettings.xml: 5.81ms
  810. 19:40:04 T:2960781312 M:829898752   DEBUG: CrystalHD: Added a new Buffer, ReadyListCount: 11
  811. 19:40:04 T:2693854432 M:824594432   DEBUG: Alloc resources: 76.93ms (0.01 ms skin load)
  812. 19:40:04 T:2693854432 M:824594432    INFO: Loading skin file: VideoOSDSettings.xml
  813. 19:40:04 T:2693854432 M:824594432   DEBUG: Load VideoOSDSettings.xml: 5.83ms
  814. 19:40:04 T:2693854432 M:824594432   DEBUG: Alloc resources: 0.43ms (0.01 ms skin load)
  815. 19:40:04 T:2693854432 M:824594432    INFO: Loading skin file: DialogFullScreenInfo.xml
  816. 19:40:04 T:2693854432 M:824594432   DEBUG: Load DialogFullScreenInfo.xml: 58.49ms
  817. 19:40:04 T:2693854432 M:822484992   DEBUG: Alloc resources: 443.36ms (0.01 ms skin load)
  818. 19:40:05 T:2693854432 M:822484992  NOTICE: Using GL_TEXTURE_2D
  819. 19:40:05 T:2693854432 M:822484992   DEBUG: GL: Requested render method: 5
  820. 19:40:05 T:2693854432 M:822484992  NOTICE: GL: ARB shaders support detected
  821. 19:40:05 T:2693854432 M:822484992  NOTICE: GL: Selecting Single Pass ARB YUV2RGB shader
  822. 19:40:05 T:2693854432 M:822484992  NOTICE: GL: No vertex shader, fixed pipeline in use
  823. 19:40:05 T:2693854432 M:822484992  NOTICE: GL: NPOT texture support detected
  824. 19:40:05 T:2693854432 M:822484992  NOTICE: GL: Using GL_ARB_pixel_buffer_object
  825. 19:40:06 T:2961846272 M:825720832   DEBUG: CDVDPlayerAudio:: Discontinuity - was:2053963.662000, should be:1981499.952535, error:-72463.709465
  826. 19:40:06 T:2693854432 M:825544704   DEBUG: SDLKeyboard: scancode: 31, sym: 111, unicode: 111, modifier: 0
  827. 19:40:06 T:2693854432 M:825544704   DEBUG: OnKey: 61519 pressed, action is CodecInfo
  828. 19:40:08 T:2961313792 M:825479168   DEBUG: CPullupCorrection: detected pattern of length 24: 42000.00 41000.00 42000.00 42000.00 41000.00 42000.00 42000.00 42000.00 41000.00 42000.00 42000.00 41000.00 42000.00 42000.00 42000.00 41000.00 42000.00 42000.00 41000.00 42000.00 42000.00 42000.00 41000.00 42000.00
  829. 19:40:15 T:2962837504 M:821006336   DEBUG: Received request to serve 'DeviceDescription.xml'
  830. 19:40:15 T:2962837504 M:821006336   DEBUG: Received request to serve 'DeviceDescription.xml'
  831. 19:40:21 T:2693854432 M:823652352    INFO: CheckIdle - Closing session to http://feeds.feedburner.com (easy=0x2d04c00, multi=0x1c1421b0)
  832. 19:40:21 T:2958753792 M:823488512   DEBUG: Thread 2958753792 terminating (autodelete)
  833. 19:40:22 T:2693854432 M:823541760    INFO: CheckIdle - Closing session to http://xoap.weather.com (easy=0x32c9800, multi=0x39a4bd0)
  834. 19:40:27 T:2958221312 M:826445824   DEBUG: Thread 2958221312 terminating (autodelete)
  835. 19:40:33 T:2693854432 M:825446400   DEBUG: SECTION:UnloadDelayed(SECTION: LCODE)
  836. 19:40:36 T:2693854432 M:818520064   DEBUG: SECTION:UnloadDelayed(DLL: special://xbmc/system/ImageLib-x86-osx.so)
  837. 19:40:36 T:2693854432 M:818520064   DEBUG: Unloading: ImageLib-x86-osx.so
  838. 19:40:56 T:2693854432 M:807559168   DEBUG: SDLKeyboard: scancode: 36, sym: 13, unicode: 13, modifier: 0
  839. 19:40:56 T:2693854432 M:807559168   DEBUG: OnKey: 61453 pressed, action is OSD
  840. 19:40:56 T:2693854432 M:807559168   DEBUG: ------ Window Init (VideoOSD.xml) ------
  841. 19:40:56 T:2693854432 M:807559168   DEBUG: Error: Requested setting (pvrplayback.timeshift) was not found.  It must be case-sensitive
  842. 19:40:56 T:2693854432 M:807559168   DEBUG: Error: Requested setting (pvrplayback.timeshift) was not found.  It must be case-sensitive
  843. 19:40:56 T:2693854432 M:808144896   DEBUG: SECTION:LoadDLL(special://xbmc/system/ImageLib-x86-osx.so)
  844. 19:40:56 T:2693854432 M:808144896   DEBUG: Loading: /Applications/XBMC.app/Contents/Resources/XBMC/system/ImageLib-x86-osx.so
  845. 19:40:57 T:2693854432 M:804110336   DEBUG: SDLKeyboard: scancode: 124, sym: 275, unicode: 63235, modifier: 0
  846. 19:40:57 T:2693854432 M:804110336   DEBUG: OnKey: 61479 pressed, action is Right
  847. 19:40:57 T:2693854432 M:805040128   DEBUG: SDLKeyboard: scancode: 124, sym: 275, unicode: 63235, modifier: 0
  848. 19:40:57 T:2693854432 M:805040128   DEBUG: OnKey: 61479 pressed, action is Right
  849. 19:40:57 T:2693854432 M:805531648   DEBUG: SDLKeyboard: scancode: 124, sym: 275, unicode: 63235, modifier: 0
  850. 19:40:57 T:2693854432 M:805531648   DEBUG: OnKey: 61479 pressed, action is Right
  851. 19:40:58 T:2693854432 M:804253696   DEBUG: SDLKeyboard: scancode: 36, sym: 13, unicode: 13, modifier: 0
  852. 19:40:58 T:2693854432 M:804253696   DEBUG: OnKey: 61453 pressed, action is Select
  853. 19:40:58 T:2693854432 M:804253696   DEBUG: ExecuteXBMCAction : Translating XBMC.PlayerControl(Stop)
  854. 19:40:58 T:2693854432 M:804253696   DEBUG: ExecuteXBMCAction : To XBMC.PlayerControl(Stop)
  855. 19:40:58 T:2693854432 M:804253696  NOTICE: CDVDPlayer::CloseFile()
  856. 19:40:58 T:2953850880 M:804253696   DEBUG: CAnnouncementManager - Announcement: PlaybackSpeedChanged from xbmc
  857. 19:40:58 T:2953850880 M:804253696   DEBUG: OnPlayBackSpeedChanged - Playback speed changed
  858. 19:40:58 T:2961846272 M:804253696   DEBUG: CDVDPlayerAudio:: Discontinuity - was:-1613509.907465, should be:53724743.802585, error:55338253.710050
  859. 19:40:58 T:2693854432 M:804253696  NOTICE: DVDPlayer: waiting for threads to exit
  860. 19:40:58 T:2953850880 M:804253696  NOTICE: CDVDPlayer::OnExit()
  861. 19:40:58 T:2953850880 M:804253696  NOTICE: DVDPlayer: closing audio stream
  862. 19:40:58 T:2953850880 M:804253696  NOTICE: Closing audio stream
  863. 19:40:58 T:2953850880 M:804253696  NOTICE: Waiting for audio thread to exit
  864. 19:40:58 T:2961846272 M:804253696  NOTICE: thread end: CDVDPlayerAudio::OnExit()
  865. 19:40:58 T:2961846272 M:804253696   DEBUG: Thread 2961846272 terminating
  866. 19:40:58 T:2953850880 M:804278272  NOTICE: Closing audio device
  867. 19:40:58 T:2953850880 M:804294656   DEBUG: CCoreAudioDevice::Close: Closed device 0x0102
  868. 19:40:58 T:2953850880 M:804294656   DEBUG: SetActiveDevice - SetActiveDevice from 2 to 1
  869. 19:40:58 T:2953850880 M:804294656   DEBUG: RemoveActiveDevice - Removing device 2
  870. 19:40:58 T:2953850880 M:804294656    INFO: CoreAudioRenderer::Deinitialize: Renderer has been shut down.
  871. 19:40:58 T:2953850880 M:804294656  NOTICE: Deleting audio codec
  872. 19:40:58 T:2953850880 M:804630528  NOTICE: DVDPlayer: closing video stream
  873. 19:40:58 T:2953850880 M:804630528  NOTICE: Closing video stream
  874. 19:40:58 T:2953850880 M:804630528  NOTICE: waiting for video thread to exit
  875. 19:40:58 T:2961313792 M:804630528  NOTICE: thread end: video_thread
  876. 19:40:58 T:2961313792 M:804630528   DEBUG: Thread 2961313792 terminating
  877. 19:40:58 T:2953850880 M:819695616  NOTICE: deleting video codec
  878. 19:40:58 T:2959818752 M:819695616   DEBUG: CrystalHD: Input Thread Stopped...
  879. 19:40:58 T:2959818752 M:819695616   DEBUG: Thread 2959818752 terminating
  880. 19:40:58 T:2960781312 M:819703808   DEBUG: CrystalHD: Output Thread Stopped...
  881. 19:40:58 T:2960781312 M:819703808   DEBUG: Thread 2960781312 terminating
  882. 19:40:58 T:2953850880 M:852660224   DEBUG: CrystalHD: codec closed
  883. 19:40:58 T:2953850880 M:852660224  NOTICE: DVDPlayer: closing video stream
  884. 19:40:58 T:2953850880 M:852660224  NOTICE: Closing subtitle stream
  885. 19:40:58 T:2953850880 M:852660224  NOTICE: CDVDPlayer::OnExit() deleting demuxer
  886. 19:40:58 T:2953850880 M:867024896  NOTICE: CDVDPlayer::OnExit() deleting input stream
  887. 19:40:58 T:2953850880 M:867024896   DEBUG: CAnnouncementManager - Announcement: PlaybackStopped from xbmc
  888. 19:40:58 T:2953850880 M:867024896   DEBUG: OnPlayBackStopped - Playback was stopped
  889. 19:40:58 T:2953850880 M:867024896   DEBUG: Thread 2953850880 terminating
  890. 19:40:58 T:2693854432 M:867074048  NOTICE: DVDPlayer: finished waiting
  891. 19:40:58 T:2693854432 M:867074048   DEBUG: LinuxRendererGL: Cleaning up GL resources
  892. 19:40:58 T:2693854432 M:872275968  NOTICE: CDVDPlayer::CloseFile()
  893. 19:40:58 T:2693854432 M:872275968 WARNING: CDVDMessageQueue(player)::Put MSGQ_NOT_INITIALIZED
  894. 19:40:58 T:2693854432 M:872275968  NOTICE: DVDPlayer: waiting for threads to exit
  895. 19:40:58 T:2693854432 M:872275968  NOTICE: DVDPlayer: finished waiting
  896. 19:40:58 T:2693854432 M:872275968   DEBUG: LinuxRendererGL: Cleaning up GL resources
  897. 19:40:58 T:2693854432 M:872443904   DEBUG: CGUIWindowManager::PreviousWindow: Deactivate
  898. 19:40:58 T:2693854432 M:872443904   DEBUG: ------ Window Deinit (VideoFullScreen.xml) ------
  899. 19:40:58 T:2693854432 M:872443904   DEBUG: ------ Window Deinit (VideoOSD.xml) ------
  900. 19:40:58 T:2693854432 M:872534016   DEBUG: CGUIWindowManager::PreviousWindow: Activate new
  901. 19:40:58 T:2693854432 M:872534016   DEBUG: CDatabase: Connecting to database MyVideos34.db at /Users/username/Library/Application Support/XBMC/userdata/Database:
  902. 19:40:58 T:2693854432 M:872534016   DEBUG: ------ Window Init (MyVideo.xml) ------
  903. 19:40:58 T:2693854432 M:872534016    INFO: Loading skin file: MyVideo.xml
  904. 19:40:59 T:2693854432 M:871387136   DEBUG: CDatabase: Connecting to database ViewModes at /Users/username/Library/Application Support/XBMC/userdata/Database:
  905. 19:40:59 T:2693854432 M:871383040   DEBUG: Load MyVideo.xml: 255.11ms
  906. 19:40:59 T:2693854432 M:871342080   DEBUG: Alloc resources: 438.83ms (255.28 ms skin load)
  907. 19:40:59 T:2693854432 M:871342080   DEBUG: CGUIMediaWindow::GetDirectory (/Users/username/Movies/)
  908. 19:40:59 T:2693854432 M:871342080   DEBUG:   ParentPath = [/Users/username/Movies/]
  909. 19:40:59 T:2953850880 M:871325696   DEBUG: thread start, auto delete: 1
  910. 19:40:59 T:2693854432 M:871309312 WARNING: CRITSEC[0xbfffe494]: Trying to initialze initialized section.
  911. 19:40:59 T:2693854432 M:871309312 WARNING: CRITSEC[0x3948a9c]: Trying to initialze initialized section.
  912. 19:40:59 T:2693854432 M:871309312   DEBUG: CDatabase: Connecting to database ViewModes at /Users/username/Library/Application Support/XBMC/userdata/Database:
  913. 19:40:59 T:2693854432 M:871309312   DEBUG: CDatabase: Connecting to database ViewModes at /Users/username/Library/Application Support/XBMC/userdata/Database:
  914. 19:40:59 T:2693854432 M:871309312   DEBUG: CDatabase: Connecting to database ViewModes at /Users/username/Library/Application Support/XBMC/userdata/Database:
  915. 19:40:59 T:2958221312 M:871321600   DEBUG: thread start, auto delete: 0
  916. 19:40:59 T:2958221312 M:871321600   DEBUG: CDatabase: Connecting to database MyVideos34.db at /Users/username/Library/Application Support/XBMC/userdata/Database:
  917. 19:40:59 T:2958221312 M:871260160   DEBUG: Thread 2958221312 terminating
  918. 19:40:59 T:2693854432 M:871260160   DEBUG: SaveFileState - Saving file state for video item /Users/username/Movies/King Arthur.mkv
  919. 19:40:59 T:2693854432 M:871260160   DEBUG: CDatabase: Connecting to database MyVideos34.db at /Users/username/Library/Application Support/XBMC/userdata/Database:
  920. 19:41:00 T:2693854432 M:862429184   DEBUG: SDLKeyboard: scancode: 1, sym: 115, unicode: 115, modifier: 0
  921. 19:41:00 T:2693854432 M:862429184   DEBUG: OnKey: 61523 pressed, action is ActivateWindow(shutdownmenu)
  922. 19:41:00 T:2693854432 M:862429184   DEBUG: Activating window ID: 10111
  923. 19:41:00 T:2693854432 M:862429184   DEBUG: Checking if window ID 10111 is locked.
  924. 19:41:00 T:2693854432 M:862429184   DEBUG: ------ Window Init (DialogButtonMenu.xml) ------
  925. 19:41:00 T:2693854432 M:862429184    INFO: Loading skin file: DialogButtonMenu.xml
  926. 19:41:00 T:2693854432 M:862429184   DEBUG: Load DialogButtonMenu.xml: 24.26ms
  927. 19:41:01 T:2693854432 M:862416896   DEBUG: Alloc resources: 184.72ms (24.38 ms skin load)
  928. 19:41:01 T:2693854432 M:849203200   DEBUG: SDLKeyboard: scancode: 124, sym: 275, unicode: 63235, modifier: 0
  929. 19:41:01 T:2693854432 M:849203200   DEBUG: OnKey: 61479 pressed, action is Right
  930. 19:41:02 T:2693854432 M:849137664   DEBUG: SDLKeyboard: scancode: 123, sym: 276, unicode: 63234, modifier: 0
  931. 19:41:02 T:2693854432 M:849137664   DEBUG: OnKey: 61477 pressed, action is Left
  932. 19:41:02 T:2693854432 M:849068032   DEBUG: SDLKeyboard: scancode: 36, sym: 13, unicode: 13, modifier: 0
  933. 19:41:02 T:2693854432 M:849068032   DEBUG: OnKey: 61453 pressed, action is Select
  934. 19:41:02 T:2693854432 M:849068032   DEBUG: ExecuteXBMCAction : Translating Quit()
  935. 19:41:02 T:2693854432 M:849068032   DEBUG: ExecuteXBMCAction : To Quit()
  936. 19:41:02 T:2953850880 M:849068032   DEBUG: Thread 2953850880 terminating (autodelete)
  937. 19:41:02 T:2693854432 M:849117184   DEBUG: CAnnouncementManager - Announcement: ApplicationStop from xbmc
  938. 19:41:02 T:2693854432 M:849117184  NOTICE: Storing total System Uptime
  939. 19:41:02 T:2693854432 M:849117184  NOTICE: Saving settings
  940. 19:41:02 T:2693854432 M:849113088  NOTICE: stop all
  941. 19:41:02 T:2693854432 M:849113088   DEBUG: NetworkMessage - Signaling network services to stop
  942. 19:41:02 T:2693854432 M:849113088  NOTICE: ES: Stopping event server
  943. 19:41:02 T:2693854432 M:849113088   DEBUG: NetworkMessage - Waiting for network services to stop
  944. 19:41:02 T:2693854432 M:849113088  NOTICE: stopping upnp
  945. 19:41:03 T:2957156352 M:849055744  NOTICE: ES: UDP Event server stopped
  946. 19:41:03 T:2957156352 M:849055744   DEBUG: Thread 2957156352 terminating
  947. 19:41:03 T:2693854432 M:849125376  NOTICE: stopping zeroconf publishing
  948. 19:41:03 T:2693854432 M:849125376   DEBUG: CLastfmScrobbler: Journal with 0 entries saved to special://masterprofile/LastfmScrobbler.xml
  949. 19:41:03 T:2693854432 M:849125376   DEBUG: CLibrefmScrobbler: Journal with 0 entries saved to special://masterprofile/LibrefmScrobbler.xml
  950. 19:41:03 T:2693854432 M:849186816  NOTICE: stop dvd detect media
  951. 19:41:03 T:2953961472 M:849186816   DEBUG: Thread 2953961472 terminating
  952. 19:41:03 T:2693854432 M:849219584  NOTICE: stop sap announcement listener
  953. 19:41:03 T:2693854432 M:849219584  NOTICE: clean cached files!
  954. 19:41:03 T:2693854432 M:849219584  NOTICE: unload skin
  955. 19:41:03 T:2693854432 M:849219584   DEBUG: ------ Window Deinit (MyVideo.xml) ------
  956. 19:41:03 T:2693854432 M:849219584   DEBUG: ------ Window Deinit (Pointer.xml) ------
  957. 19:41:03 T:2693854432 M:849219584   DEBUG: ------ Window Deinit (DialogMuteBug.xml) ------
  958. 19:41:03 T:2693854432 M:891691008    INFO: CrystalHD: device closed
  959. 19:41:03 T:2693854432 M:891691008  NOTICE: stop python
  960. 19:41:03 T:2693854432 M:891691008  NOTICE: stopped
  961. 19:41:03 T:2693854432 M:891691008  NOTICE: destroy
  962. 19:41:03 T:2693854432 M:891711488  NOTICE: unload sections
  963. 19:41:03 T:2693854432 M:891711488   DEBUG: SECTION:UnloadAll(DLL: libcrystalhd.dylib)
  964. 19:41:03 T:2693854432 M:891711488   DEBUG: Unloading: libcrystalhd.dylib
  965. 19:41:03 T:2693854432 M:891719680   DEBUG: SECTION:UnloadAll(DLL: special://xbmc/system/libcurl-x86-osx.so)
  966. 19:41:03 T:2693854432 M:891719680   DEBUG: Unloading: libcurl-x86-osx.so
  967. 19:41:03 T:2693854432 M:891727872   DEBUG: SECTION:UnloadAll(DLL: special://xbmc/system/players/dvdplayer/avutil-50-x86-osx.so)
  968. 19:41:03 T:2693854432 M:891727872   DEBUG: Unloading: avutil-50-x86-osx.so
  969. 19:41:03 T:2693854432 M:891727872   DEBUG: SECTION:UnloadAll(DLL: special://xbmc/system/players/dvdplayer/avcodec-52-x86-osx.so)
  970. 19:41:03 T:2693854432 M:891727872   DEBUG: Unloading: avcodec-52-x86-osx.so
  971. 19:41:03 T:2693854432 M:891727872   DEBUG: SECTION:UnloadAll(DLL: special://xbmc/system/players/dvdplayer/avformat-52-x86-osx.so)
  972. 19:41:03 T:2693854432 M:891727872   DEBUG: Unloading: avformat-52-x86-osx.so
  973. 19:41:03 T:2693854432 M:892280832   DEBUG: SECTION:UnloadAll(DLL: special://xbmc/system/players/dvdplayer/swscale-0.6.1-x86-osx.so)
  974. 19:41:03 T:2693854432 M:892280832   DEBUG: Unloading: swscale-0.6.1-x86-osx.so
  975. 19:41:03 T:2693854432 M:892403712   DEBUG: SECTION:UnloadAll(DLL: special://xbmc/system/ImageLib-x86-osx.so)
  976. 19:41:03 T:2693854432 M:892403712   DEBUG: Unloading: ImageLib-x86-osx.so
  977. 19:41:03 T:2693854432 M:892461056   DEBUG: CLastfmScrobbler: Journal with 0 entries saved to special://masterprofile/LastfmScrobbler.xml
  978. 19:41:03 T:2693854432 M:892461056   DEBUG: CLibrefmScrobbler: Journal with 0 entries saved to special://masterprofile/LibrefmScrobbler.xml
  979. 19:41:03 T:2693854432 M:892461056    INFO: lastfm destroyed
  980. 19:41:03 T:2693854432 M:892461056   DEBUG: object 0 --> 0 instances
  981. 19:41:03 T:2693854432 M:892461056   DEBUG: object 1 --> 0 instances
  982. 19:41:03 T:2693854432 M:892461056   DEBUG: object 2 --> 16 instances
  983. 19:41:03 T:2693854432 M:892461056   DEBUG: object 3 --> 0 instances
  984. 19:41:03 T:2693854432 M:892461056   DEBUG: object 4 --> 18 instances
  985. 19:41:03 T:2693854432 M:892461056   DEBUG: object 5 --> 0 instances
  986. 19:41:03 T:2693854432 M:892461056   DEBUG: object 6 --> 0 instances
  987. 19:41:03 T:2693854432 M:892461056   DEBUG: object 7 --> 0 instances
  988. 19:41:03 T:2693854432 M:892461056   DEBUG: object 8 --> 0 instances
  989. 19:41:03 T:2693854432 M:892461056   DEBUG: object 9 --> 0 instances
  990. 19:41:03 T:2693854432 M:892518400   DEBUG: LinuxRendererGL: Cleaning up GL resources
clone this paste RAW Paste Data